<?xml version="1.0" encoding="UTF-8" standalone="no" ?>
<gpx xmlns="http://www.topografix.com/GPX/1/1" xmlns:xsi="http://www.w3.org/2001/XMLSchema-instance" xsi:schemaLocation="http://www.topografix.com/GPX/1/1 http://www.topografix.com/GPX/1/1/gpx.xsd" version="1.1" creator="VisuGPX - https://www.visugpx.com">
  <metadata>
    <name>Traversée de hautes alpes 7/7</name>
    <desc><![CDATA[Traversée de hautes alpes 7/7 : Mizoen à Montrond ou de la Meije au Buech.]]></desc>
  </metadata>
  <trk>
    <name><![CDATA[track]]></name>
    <trkseg>
      <trkpt lat="44.49798" lon="5.99153">
        <ele>1040</ele>
        <time>2010-01-16T00:39:13Z</time>
      </trkpt>
      <trkpt lat="44.49763" lon="5.98974">
        <ele>1038</ele>
        <time>2010-01-16T00:39:13Z</time>
      </trkpt>
      <trkpt lat="44.49688" lon="5.98932">
        <ele>1033</ele>
        <time>2010-01-16T00:39:13Z</time>
      </trkpt>
      <trkpt lat="44.49644" lon="5.98897">
        <ele>1033</ele>
        <time>2010-01-16T00:39:13Z</time>
      </trkpt>
      <trkpt lat="44.49625" lon="5.98789">
        <ele>1037</ele>
        <time>2010-01-16T00:39:13Z</time>
      </trkpt>
      <trkpt lat="44.49615" lon="5.98688">
        <ele>1039</ele>
        <time>2010-01-16T00:39:13Z</time>
      </trkpt>
      <trkpt lat="44.49636" lon="5.98601">
        <ele>1043</ele>
        <time>2010-01-16T00:39:13Z</time>
      </trkpt>
      <trkpt lat="44.49662" lon="5.98483">
        <ele>1049</ele>
        <time>2010-01-16T00:39:13Z</time>
      </trkpt>
      <trkpt lat="44.49651" lon="5.98407">
        <ele>1054</ele>
        <time>2010-01-16T00:39:13Z</time>
      </trkpt>
      <trkpt lat="44.49589" lon="5.98384">
        <ele>1055</ele>
        <time>2010-01-16T00:39:13Z</time>
      </trkpt>
      <trkpt lat="44.49526" lon="5.98374">
        <ele>1059</ele>
        <time>2010-01-16T00:39:13Z</time>
      </trkpt>
      <trkpt lat="44.4947" lon="5.98314">
        <ele>1066</ele>
        <time>2010-01-16T00:39:13Z</time>
      </trkpt>
      <trkpt lat="44.49417" lon="5.98279">
        <ele>1068</ele>
        <time>2010-01-16T00:39:13Z</time>
      </trkpt>
      <trkpt lat="44.49355" lon="5.9825">
        <ele>1069</ele>
        <time>2010-01-16T00:39:13Z</time>
      </trkpt>
      <trkpt lat="44.49277" lon="5.9815">
        <ele>1076</ele>
        <time>2010-01-16T00:39:13Z</time>
      </trkpt>
      <trkpt lat="44.49222" lon="5.98046">
        <ele>1086</ele>
        <time>2010-01-16T00:39:13Z</time>
      </trkpt>
      <trkpt lat="44.4911" lon="5.97894">
        <ele>1096</ele>
        <time>2010-01-16T00:39:13Z</time>
      </trkpt>
      <trkpt lat="44.49041" lon="5.97808">
        <ele>1102</ele>
        <time>2010-01-16T00:39:13Z</time>
      </trkpt>
      <trkpt lat="44.49006" lon="5.97768">
        <ele>1105</ele>
        <time>2010-01-16T00:39:13Z</time>
      </trkpt>
      <trkpt lat="44.48993" lon="5.97755">
        <ele>1107</ele>
        <time>2009-11-23T07:24:21Z</time>
      </trkpt>
      <trkpt lat="44.48921" lon="5.97693">
        <ele>1112</ele>
        <time>2009-11-23T07:24:21Z</time>
      </trkpt>
      <trkpt lat="44.4889" lon="5.97625">
        <ele>1119</ele>
        <time>2009-11-23T07:24:21Z</time>
      </trkpt>
      <trkpt lat="44.48857" lon="5.97538">
        <ele>1131</ele>
        <time>2009-11-23T07:24:21Z</time>
      </trkpt>
      <trkpt lat="44.48831" lon="5.97496">
        <ele>1135</ele>
        <time>2009-11-23T07:24:21Z</time>
      </trkpt>
      <trkpt lat="44.48808" lon="5.97447">
        <ele>1137</ele>
        <time>2009-11-23T07:24:21Z</time>
      </trkpt>
      <trkpt lat="44.4878" lon="5.97417">
        <ele>1136</ele>
        <time>2009-11-23T07:24:21Z</time>
      </trkpt>
      <trkpt lat="44.48745" lon="5.97371">
        <ele>1135</ele>
        <time>2009-11-23T07:24:21Z</time>
      </trkpt>
      <trkpt lat="44.48718" lon="5.97303">
        <ele>1141</ele>
        <time>2009-11-23T07:24:21Z</time>
      </trkpt>
      <trkpt lat="44.487" lon="5.97242">
        <ele>1146</ele>
        <time>2009-11-23T07:24:21Z</time>
      </trkpt>
      <trkpt lat="44.48685" lon="5.972">
        <ele>1149</ele>
        <time>2009-11-23T07:24:21Z</time>
      </trkpt>
      <trkpt lat="44.48672" lon="5.97143">
        <ele>1152</ele>
        <time>2009-11-23T07:24:21Z</time>
      </trkpt>
      <trkpt lat="44.4868" lon="5.9709">
        <ele>1156</ele>
        <time>2009-11-23T07:24:21Z</time>
      </trkpt>
      <trkpt lat="44.4869" lon="5.97068">
        <ele>1158</ele>
        <time>2009-11-23T07:24:21Z</time>
      </trkpt>
      <trkpt lat="44.48694" lon="5.97021">
        <ele>1161</ele>
        <time>2009-11-23T07:24:21Z</time>
      </trkpt>
      <trkpt lat="44.48693" lon="5.96984">
        <ele>1163</ele>
        <time>2009-11-23T07:24:21Z</time>
      </trkpt>
      <trkpt lat="44.48685" lon="5.96939">
        <ele>1167</ele>
        <time>2009-11-23T07:24:21Z</time>
      </trkpt>
      <trkpt lat="44.48682" lon="5.96904">
        <ele>1170</ele>
        <time>2009-11-23T07:24:21Z</time>
      </trkpt>
      <trkpt lat="44.48676" lon="5.96866">
        <ele>1173</ele>
        <time>2009-11-23T07:24:21Z</time>
      </trkpt>
      <trkpt lat="44.48688" lon="5.96836">
        <ele>1177</ele>
        <time>2009-11-23T07:24:21Z</time>
      </trkpt>
      <trkpt lat="44.48707" lon="5.96815">
        <ele>1181</ele>
        <time>2009-11-23T07:24:21Z</time>
      </trkpt>
      <trkpt lat="44.48713" lon="5.96771">
        <ele>1184</ele>
        <time>2009-11-23T07:24:21Z</time>
      </trkpt>
      <trkpt lat="44.48714" lon="5.96734">
        <ele>1185</ele>
        <time>2009-11-23T07:24:21Z</time>
      </trkpt>
      <trkpt lat="44.48728" lon="5.96665">
        <ele>1188</ele>
        <time>2009-11-23T07:24:21Z</time>
      </trkpt>
      <trkpt lat="44.48715" lon="5.96636">
        <ele>1188</ele>
        <time>2009-11-23T07:24:21Z</time>
      </trkpt>
      <trkpt lat="44.48707" lon="5.96614">
        <ele>1190</ele>
        <time>2009-11-23T07:24:21Z</time>
      </trkpt>
      <trkpt lat="44.48683" lon="5.9659">
        <ele>1191</ele>
        <time>2009-11-23T07:24:21Z</time>
      </trkpt>
      <trkpt lat="44.48655" lon="5.96544">
        <ele>1194</ele>
        <time>2009-11-23T07:24:21Z</time>
      </trkpt>
      <trkpt lat="44.48641" lon="5.96496">
        <ele>1199</ele>
        <time>2009-11-23T07:24:21Z</time>
      </trkpt>
      <trkpt lat="44.4863" lon="5.9648">
        <ele>1199</ele>
        <time>2009-11-23T07:24:21Z</time>
      </trkpt>
      <trkpt lat="44.48633" lon="5.96414">
        <ele>1206</ele>
        <time>2009-11-23T07:24:21Z</time>
      </trkpt>
      <trkpt lat="44.48643" lon="5.96361">
        <ele>1210</ele>
        <time>2009-11-23T07:24:21Z</time>
      </trkpt>
      <trkpt lat="44.48654" lon="5.96308">
        <ele>1214</ele>
        <time>2009-11-23T07:24:21Z</time>
      </trkpt>
      <trkpt lat="44.48665" lon="5.96265">
        <ele>1218</ele>
        <time>2009-11-23T07:24:21Z</time>
      </trkpt>
      <trkpt lat="44.48661" lon="5.9624">
        <ele>1219</ele>
        <time>2009-11-23T07:24:21Z</time>
      </trkpt>
      <trkpt lat="44.48685" lon="5.96203">
        <ele>1226</ele>
        <time>2009-11-23T07:24:21Z</time>
      </trkpt>
      <trkpt lat="44.48696" lon="5.96141">
        <ele>1231</ele>
        <time>2009-11-23T07:24:21Z</time>
      </trkpt>
      <trkpt lat="44.48706" lon="5.96026">
        <ele>1231</ele>
        <time>2009-11-23T07:24:21Z</time>
      </trkpt>
      <trkpt lat="44.4872" lon="5.9596">
        <ele>1231</ele>
        <time>2009-11-23T07:24:21Z</time>
      </trkpt>
      <trkpt lat="44.48734" lon="5.95855">
        <ele>1229</ele>
        <time>2009-11-23T07:24:21Z</time>
      </trkpt>
      <trkpt lat="44.48707" lon="5.9579">
        <ele>1227</ele>
        <time>2009-11-23T07:24:21Z</time>
      </trkpt>
      <trkpt lat="44.48683" lon="5.95716">
        <ele>1226</ele>
        <time>2009-11-23T07:24:21Z</time>
      </trkpt>
      <trkpt lat="44.48674" lon="5.95637">
        <ele>1227</ele>
        <time>2009-11-23T07:24:21Z</time>
      </trkpt>
      <trkpt lat="44.48666" lon="5.95551">
        <ele>1227</ele>
        <time>2009-11-23T07:24:21Z</time>
      </trkpt>
      <trkpt lat="44.48675" lon="5.9553">
        <ele>1228</ele>
        <time>2009-11-23T07:24:21Z</time>
      </trkpt>
      <trkpt lat="44.48663" lon="5.95429">
        <ele>1229</ele>
        <time>2009-11-23T07:24:21Z</time>
      </trkpt>
      <trkpt lat="44.4865" lon="5.95412">
        <ele>1228</ele>
        <time>2009-11-23T07:24:21Z</time>
      </trkpt>
      <trkpt lat="44.48624" lon="5.95373">
        <ele>1227</ele>
        <time>2009-11-23T07:24:21Z</time>
      </trkpt>
      <trkpt lat="44.48587" lon="5.95336">
        <ele>1224</ele>
        <time>2009-11-23T07:24:21Z</time>
      </trkpt>
      <trkpt lat="44.48568" lon="5.95246">
        <ele>1228</ele>
        <time>2009-11-23T07:24:21Z</time>
      </trkpt>
      <trkpt lat="44.48542" lon="5.95141">
        <ele>1233</ele>
        <time>2009-11-23T07:24:21Z</time>
      </trkpt>
      <trkpt lat="44.48536" lon="5.9504">
        <ele>1239</ele>
        <time>2009-11-23T07:24:21Z</time>
      </trkpt>
      <trkpt lat="44.48517" lon="5.94951">
        <ele>1242</ele>
        <time>2009-11-23T07:24:21Z</time>
      </trkpt>
      <trkpt lat="44.48499" lon="5.94884">
        <ele>1244</ele>
        <time>2009-11-23T07:24:21Z</time>
      </trkpt>
      <trkpt lat="44.48496" lon="5.94821">
        <ele>1250</ele>
        <time>2009-11-23T07:24:21Z</time>
      </trkpt>
      <trkpt lat="44.48468" lon="5.9464">
        <ele>1257</ele>
        <time>2009-11-23T07:24:21Z</time>
      </trkpt>
      <trkpt lat="44.48465" lon="5.94523">
        <ele>1258</ele>
        <time>2009-11-23T07:24:21Z</time>
      </trkpt>
      <trkpt lat="44.48473" lon="5.94489">
        <ele>1259</ele>
        <time>2009-11-23T07:24:21Z</time>
      </trkpt>
      <trkpt lat="44.48499" lon="5.94462">
        <ele>1264</ele>
        <time>2009-11-23T07:24:21Z</time>
      </trkpt>
      <trkpt lat="44.48534" lon="5.94351">
        <ele>1274</ele>
        <time>2009-11-23T07:24:21Z</time>
      </trkpt>
      <trkpt lat="44.4854" lon="5.94298">
        <ele>1277</ele>
        <time>2009-11-23T07:24:21Z</time>
      </trkpt>
      <trkpt lat="44.48586" lon="5.94198">
        <ele>1289</ele>
        <time>2009-11-23T07:24:21Z</time>
      </trkpt>
      <trkpt lat="44.4863" lon="5.94094">
        <ele>1296</ele>
        <time>2009-11-23T07:24:21Z</time>
      </trkpt>
      <trkpt lat="44.48652" lon="5.94057">
        <ele>1298</ele>
        <time>2009-11-23T07:24:21Z</time>
      </trkpt>
      <trkpt lat="44.48637" lon="5.94044">
        <ele>1295</ele>
        <time>2009-11-23T07:24:21Z</time>
      </trkpt>
      <trkpt lat="44.48601" lon="5.94035">
        <ele>1290</ele>
        <time>2009-11-23T07:24:21Z</time>
      </trkpt>
      <trkpt lat="44.48561" lon="5.94007">
        <ele>1290</ele>
        <time>2009-11-23T07:24:21Z</time>
      </trkpt>
      <trkpt lat="44.48521" lon="5.93917">
        <ele>1303</ele>
        <time>2009-11-23T07:24:21Z</time>
      </trkpt>
      <trkpt lat="44.48502" lon="5.93834">
        <ele>1313</ele>
        <time>2009-11-23T07:24:21Z</time>
      </trkpt>
      <trkpt lat="44.485" lon="5.93739">
        <ele>1317</ele>
        <time>2009-11-23T07:24:21Z</time>
      </trkpt>
      <trkpt lat="44.48499" lon="5.93714">
        <ele>1317</ele>
        <time>2009-11-23T07:24:21Z</time>
      </trkpt>
      <trkpt lat="44.48475" lon="5.93697">
        <ele>1315</ele>
        <time>2009-11-23T07:24:21Z</time>
      </trkpt>
      <trkpt lat="44.48438" lon="5.9371">
        <ele>1318</ele>
        <time>2009-11-23T07:24:21Z</time>
      </trkpt>
      <trkpt lat="44.48373" lon="5.93772">
        <ele>1325</ele>
        <time>2009-11-23T07:24:21Z</time>
      </trkpt>
      <trkpt lat="44.48288" lon="5.9382">
        <ele>1339</ele>
        <time>2009-11-23T07:24:21Z</time>
      </trkpt>
      <trkpt lat="44.48235" lon="5.93873">
        <ele>1348</ele>
        <time>2009-11-23T07:24:21Z</time>
      </trkpt>
      <trkpt lat="44.48208" lon="5.93919">
        <ele>1350</ele>
        <time>2009-11-23T07:24:21Z</time>
      </trkpt>
      <trkpt lat="44.48143" lon="5.93993">
        <ele>1359</ele>
        <time>2009-11-23T07:24:21Z</time>
      </trkpt>
      <trkpt lat="44.48082" lon="5.9408">
        <ele>1368</ele>
        <time>2009-11-23T07:24:21Z</time>
      </trkpt>
      <trkpt lat="44.48035" lon="5.94131">
        <ele>1377</ele>
        <time>2009-11-23T07:24:21Z</time>
      </trkpt>
      <trkpt lat="44.47946" lon="5.94182">
        <ele>1389</ele>
        <time>2009-11-23T07:24:21Z</time>
      </trkpt>
      <trkpt lat="44.47908" lon="5.9423">
        <ele>1398</ele>
        <time>2009-11-23T07:24:21Z</time>
      </trkpt>
      <trkpt lat="44.47888" lon="5.94291">
        <ele>1403</ele>
        <time>2009-11-23T07:24:21Z</time>
      </trkpt>
      <trkpt lat="44.47863" lon="5.94365">
        <ele>1403</ele>
        <time>2009-11-23T07:24:21Z</time>
      </trkpt>
      <trkpt lat="44.47831" lon="5.94385">
        <ele>1406</ele>
        <time>2009-11-23T07:24:21Z</time>
      </trkpt>
      <trkpt lat="44.47775" lon="5.94384">
        <ele>1416</ele>
        <time>2009-11-23T07:24:21Z</time>
      </trkpt>
      <trkpt lat="44.47732" lon="5.94388">
        <ele>1422</ele>
        <time>2009-11-23T07:24:21Z</time>
      </trkpt>
      <trkpt lat="44.47638" lon="5.94445">
        <ele>1432</ele>
        <time>2009-11-23T07:24:21Z</time>
      </trkpt>
      <trkpt lat="44.47568" lon="5.945">
        <ele>1436</ele>
        <time>2009-11-23T07:24:21Z</time>
      </trkpt>
      <trkpt lat="44.47501" lon="5.94565">
        <ele>1449</ele>
        <time>2009-11-23T07:24:21Z</time>
      </trkpt>
      <trkpt lat="44.47456" lon="5.94612">
        <ele>1457</ele>
        <time>2009-11-23T07:24:21Z</time>
      </trkpt>
      <trkpt lat="44.47403" lon="5.94659">
        <ele>1460</ele>
        <time>2009-11-23T07:24:21Z</time>
      </trkpt>
      <trkpt lat="44.47395" lon="5.94643">
        <ele>1464</ele>
        <time>2009-11-23T07:24:21Z</time>
      </trkpt>
      <trkpt lat="44.47416" lon="5.946">
        <ele>1468</ele>
        <time>2009-11-23T07:24:21Z</time>
      </trkpt>
      <trkpt lat="44.4745" lon="5.94533">
        <ele>1470</ele>
        <time>2009-11-23T07:24:21Z</time>
      </trkpt>
      <trkpt lat="44.47473" lon="5.94447">
        <ele>1483</ele>
        <time>2009-11-23T07:24:21Z</time>
      </trkpt>
      <trkpt lat="44.47503" lon="5.9437">
        <ele>1490</ele>
        <time>2009-11-23T07:24:21Z</time>
      </trkpt>
      <trkpt lat="44.4757" lon="5.94315">
        <ele>1485</ele>
        <time>2009-11-23T07:24:21Z</time>
      </trkpt>
      <trkpt lat="44.47611" lon="5.94211">
        <ele>1502</ele>
        <time>2009-11-23T07:24:21Z</time>
      </trkpt>
      <trkpt lat="44.4766" lon="5.94101">
        <ele>1510</ele>
        <time>2009-11-23T07:24:21Z</time>
      </trkpt>
      <trkpt lat="44.47687" lon="5.94043">
        <ele>1520</ele>
        <time>2009-11-23T07:24:21Z</time>
      </trkpt>
      <trkpt lat="44.4771" lon="5.93884">
        <ele>1534</ele>
        <time>2009-11-23T07:24:21Z</time>
      </trkpt>
      <trkpt lat="44.47746" lon="5.93829">
        <ele>1530</ele>
        <time>2009-11-23T07:24:21Z</time>
      </trkpt>
      <trkpt lat="44.47757" lon="5.93748">
        <ele>1548</ele>
        <time>2009-11-23T07:24:21Z</time>
      </trkpt>
      <trkpt lat="44.47759" lon="5.93692">
        <ele>1559</ele>
        <time>2009-11-23T07:24:21Z</time>
      </trkpt>
      <trkpt lat="44.47781" lon="5.93627">
        <ele>1561</ele>
        <time>2009-11-23T07:24:21Z</time>
      </trkpt>
      <trkpt lat="44.47785" lon="5.93596">
        <ele>1564</ele>
        <time>2009-11-23T07:24:21Z</time>
      </trkpt>
      <trkpt lat="44.47782" lon="5.93552">
        <ele>1569</ele>
        <time>2009-11-23T07:24:21Z</time>
      </trkpt>
      <trkpt lat="44.47788" lon="5.93493">
        <ele>1571</ele>
        <time>2009-11-23T07:24:21Z</time>
      </trkpt>
      <trkpt lat="44.47801" lon="5.93453">
        <ele>1570</ele>
        <time>2009-11-23T07:24:21Z</time>
      </trkpt>
      <trkpt lat="44.47778" lon="5.93467">
        <ele>1575</ele>
        <time>2009-11-23T07:24:21Z</time>
      </trkpt>
      <trkpt lat="44.4775" lon="5.93493">
        <ele>1581</ele>
        <time>2009-11-23T07:24:21Z</time>
      </trkpt>
      <trkpt lat="44.47697" lon="5.93518">
        <ele>1590</ele>
        <time>2009-11-23T07:24:21Z</time>
      </trkpt>
      <trkpt lat="44.47746" lon="5.93414">
        <ele>1583</ele>
        <time>2009-11-23T07:24:21Z</time>
      </trkpt>
      <trkpt lat="44.47817" lon="5.93306">
        <ele>1575</ele>
        <time>2009-11-23T07:24:21Z</time>
      </trkpt>
      <trkpt lat="44.47842" lon="5.93232">
        <ele>1572</ele>
        <time>2009-11-23T07:24:21Z</time>
      </trkpt>
      <trkpt lat="44.47804" lon="5.93286">
        <ele>1575</ele>
        <time>2009-11-23T07:24:21Z</time>
      </trkpt>
      <trkpt lat="44.47766" lon="5.9334">
        <ele>1577</ele>
        <time>2009-11-23T07:24:21Z</time>
      </trkpt>
      <trkpt lat="44.47726" lon="5.93404">
        <ele>1583</ele>
        <time>2009-11-23T07:24:21Z</time>
      </trkpt>
      <trkpt lat="44.47666" lon="5.93431">
        <ele>1586</ele>
        <time>2009-11-23T07:24:21Z</time>
      </trkpt>
      <trkpt lat="44.47614" lon="5.93441">
        <ele>1587</ele>
        <time>2009-11-23T07:24:21Z</time>
      </trkpt>
      <trkpt lat="44.47558" lon="5.93446">
        <ele>1577</ele>
        <time>2009-11-23T07:24:21Z</time>
      </trkpt>
      <trkpt lat="44.47513" lon="5.93437">
        <ele>1565</ele>
        <time>2009-11-23T07:24:21Z</time>
      </trkpt>
      <trkpt lat="44.47496" lon="5.93399">
        <ele>1564</ele>
        <time>2009-11-23T07:24:21Z</time>
      </trkpt>
      <trkpt lat="44.47532" lon="5.93347">
        <ele>1561</ele>
        <time>2009-11-23T07:24:21Z</time>
      </trkpt>
      <trkpt lat="44.47485" lon="5.93335">
        <ele>1556</ele>
        <time>2009-11-23T07:24:21Z</time>
      </trkpt>
      <trkpt lat="44.4749" lon="5.93307">
        <ele>1545</ele>
        <time>2009-11-23T07:24:21Z</time>
      </trkpt>
      <trkpt lat="44.47459" lon="5.93292">
        <ele>1534</ele>
        <time>2009-11-23T07:24:21Z</time>
      </trkpt>
      <trkpt lat="44.47399" lon="5.93333">
        <ele>1518</ele>
        <time>2009-11-23T07:24:21Z</time>
      </trkpt>
      <trkpt lat="44.47386" lon="5.93325">
        <ele>1510</ele>
        <time>2009-11-23T07:24:21Z</time>
      </trkpt>
      <trkpt lat="44.47408" lon="5.93223">
        <ele>1498</ele>
        <time>2009-11-23T07:24:21Z</time>
      </trkpt>
      <trkpt lat="44.47348" lon="5.93248">
        <ele>1483</ele>
        <time>2009-11-23T07:24:21Z</time>
      </trkpt>
      <trkpt lat="44.47293" lon="5.93279">
        <ele>1466</ele>
        <time>2009-11-23T07:24:21Z</time>
      </trkpt>
      <trkpt lat="44.47253" lon="5.93267">
        <ele>1451</ele>
        <time>2009-11-23T07:24:21Z</time>
      </trkpt>
      <trkpt lat="44.47241" lon="5.93225">
        <ele>1450</ele>
        <time>2009-11-23T07:24:21Z</time>
      </trkpt>
      <trkpt lat="44.47237" lon="5.93077">
        <ele>1446</ele>
        <time>2009-11-23T07:24:21Z</time>
      </trkpt>
      <trkpt lat="44.47247" lon="5.92987">
        <ele>1445</ele>
        <time>2009-11-23T07:24:21Z</time>
      </trkpt>
      <trkpt lat="44.47251" lon="5.92918">
        <ele>1443</ele>
        <time>2009-11-23T07:24:21Z</time>
      </trkpt>
      <trkpt lat="44.47228" lon="5.92856">
        <ele>1448</ele>
        <time>2009-11-23T07:24:21Z</time>
      </trkpt>
      <trkpt lat="44.47212" lon="5.92733">
        <ele>1442</ele>
        <time>2009-11-23T07:24:21Z</time>
      </trkpt>
      <trkpt lat="44.47209" lon="5.92635">
        <ele>1437</ele>
        <time>2009-11-23T07:24:21Z</time>
      </trkpt>
      <trkpt lat="44.47176" lon="5.92529">
        <ele>1434</ele>
        <time>2009-11-23T07:24:21Z</time>
      </trkpt>
      <trkpt lat="44.4714" lon="5.92458">
        <ele>1435</ele>
        <time>2009-11-23T07:24:21Z</time>
      </trkpt>
      <trkpt lat="44.47105" lon="5.92421">
        <ele>1443</ele>
        <time>2009-11-23T07:24:21Z</time>
      </trkpt>
      <trkpt lat="44.4706" lon="5.92443">
        <ele>1459</ele>
        <time>2009-11-23T07:24:21Z</time>
      </trkpt>
      <trkpt lat="44.47002" lon="5.92496">
        <ele>1462</ele>
        <time>2009-11-23T07:24:21Z</time>
      </trkpt>
      <trkpt lat="44.46955" lon="5.92534">
        <ele>1457</ele>
        <time>2009-11-23T07:24:21Z</time>
      </trkpt>
      <trkpt lat="44.46918" lon="5.92494">
        <ele>1435</ele>
        <time>2009-11-23T07:24:21Z</time>
      </trkpt>
      <trkpt lat="44.46898" lon="5.92427">
        <ele>1424</ele>
        <time>2009-11-23T07:24:21Z</time>
      </trkpt>
      <trkpt lat="44.46884" lon="5.92291">
        <ele>1406</ele>
        <time>2009-11-23T07:24:21Z</time>
      </trkpt>
      <trkpt lat="44.46877" lon="5.92177">
        <ele>1404</ele>
        <time>2009-11-23T07:24:21Z</time>
      </trkpt>
      <trkpt lat="44.46816" lon="5.92123">
        <ele>1424</ele>
        <time>2009-11-23T07:24:21Z</time>
      </trkpt>
      <trkpt lat="44.46765" lon="5.92079">
        <ele>1423</ele>
        <time>2009-11-23T07:24:21Z</time>
      </trkpt>
      <trkpt lat="44.46726" lon="5.92048">
        <ele>1418</ele>
        <time>2009-11-23T07:24:21Z</time>
      </trkpt>
      <trkpt lat="44.46684" lon="5.92014">
        <ele>1408</ele>
        <time>2009-11-23T07:24:21Z</time>
      </trkpt>
      <trkpt lat="44.46674" lon="5.91979">
        <ele>1399</ele>
        <time>2009-11-23T07:24:21Z</time>
      </trkpt>
      <trkpt lat="44.46688" lon="5.91951">
        <ele>1394</ele>
        <time>2009-11-23T07:24:21Z</time>
      </trkpt>
      <trkpt lat="44.46718" lon="5.91934">
        <ele>1388</ele>
        <time>2009-11-23T07:24:21Z</time>
      </trkpt>
      <trkpt lat="44.46763" lon="5.9189">
        <ele>1369</ele>
        <time>2009-11-23T07:24:21Z</time>
      </trkpt>
      <trkpt lat="44.46805" lon="5.91827">
        <ele>1358</ele>
        <time>2009-11-23T07:24:21Z</time>
      </trkpt>
      <trkpt lat="44.46842" lon="5.91792">
        <ele>1353</ele>
        <time>2009-11-23T07:24:21Z</time>
      </trkpt>
      <trkpt lat="44.46894" lon="5.91779">
        <ele>1340</ele>
        <time>2009-11-23T07:24:21Z</time>
      </trkpt>
      <trkpt lat="44.46882" lon="5.91753">
        <ele>1348</ele>
        <time>2009-11-23T07:24:21Z</time>
      </trkpt>
      <trkpt lat="44.46838" lon="5.91728">
        <ele>1363</ele>
        <time>2009-11-23T07:24:21Z</time>
      </trkpt>
      <trkpt lat="44.46812" lon="5.91676">
        <ele>1358</ele>
        <time>2009-11-23T07:24:21Z</time>
      </trkpt>
      <trkpt lat="44.46798" lon="5.91553">
        <ele>1337</ele>
        <time>2009-11-23T07:24:21Z</time>
      </trkpt>
      <trkpt lat="44.46772" lon="5.91598">
        <ele>1341</ele>
        <time>2009-11-23T07:24:21Z</time>
      </trkpt>
      <trkpt lat="44.46754" lon="5.91607">
        <ele>1339</ele>
        <time>2009-11-23T07:24:21Z</time>
      </trkpt>
      <trkpt lat="44.46739" lon="5.91581">
        <ele>1328</ele>
        <time>2009-11-23T07:24:21Z</time>
      </trkpt>
      <trkpt lat="44.46709" lon="5.91588">
        <ele>1318</ele>
        <time>2009-11-23T07:24:21Z</time>
      </trkpt>
      <trkpt lat="44.46694" lon="5.9159">
        <ele>1311</ele>
        <time>2009-11-23T07:24:21Z</time>
      </trkpt>
      <trkpt lat="44.4664" lon="5.91631">
        <ele>1297</ele>
        <time>2009-11-23T07:24:21Z</time>
      </trkpt>
      <trkpt lat="44.46654" lon="5.91503">
        <ele>1269</ele>
        <time>2009-11-23T07:24:21Z</time>
      </trkpt>
      <trkpt lat="44.46654" lon="5.91428">
        <ele>1251</ele>
        <time>2009-11-23T07:24:21Z</time>
      </trkpt>
      <trkpt lat="44.46647" lon="5.91361">
        <ele>1231</ele>
        <time>2009-11-23T07:24:21Z</time>
      </trkpt>
      <trkpt lat="44.46603" lon="5.91405">
        <ele>1223</ele>
        <time>2009-11-23T07:24:21Z</time>
      </trkpt>
      <trkpt lat="44.46545" lon="5.91449">
        <ele>1208</ele>
        <time>2009-11-23T07:24:21Z</time>
      </trkpt>
      <trkpt lat="44.46546" lon="5.91414">
        <ele>1201</ele>
        <time>2009-11-23T07:24:21Z</time>
      </trkpt>
      <trkpt lat="44.46533" lon="5.91404">
        <ele>1193</ele>
        <time>2009-11-23T07:24:21Z</time>
      </trkpt>
      <trkpt lat="44.46529" lon="5.91376">
        <ele>1186</ele>
        <time>2009-11-23T07:24:21Z</time>
      </trkpt>
      <trkpt lat="44.46502" lon="5.91386">
        <ele>1178</ele>
        <time>2009-11-23T07:24:21Z</time>
      </trkpt>
      <trkpt lat="44.46483" lon="5.91363">
        <ele>1166</ele>
        <time>2009-11-23T07:24:21Z</time>
      </trkpt>
      <trkpt lat="44.4645" lon="5.91342">
        <ele>1149</ele>
        <time>2009-11-23T07:24:21Z</time>
      </trkpt>
      <trkpt lat="44.46464" lon="5.91324">
        <ele>1151</ele>
        <time>2009-11-23T07:24:21Z</time>
      </trkpt>
      <trkpt lat="44.46427" lon="5.91287">
        <ele>1136</ele>
        <time>2009-11-23T07:24:21Z</time>
      </trkpt>
      <trkpt lat="44.46375" lon="5.9129">
        <ele>1119</ele>
        <time>2009-11-23T07:24:21Z</time>
      </trkpt>
      <trkpt lat="44.46321" lon="5.9129">
        <ele>1097</ele>
        <time>2009-11-23T07:24:21Z</time>
      </trkpt>
      <trkpt lat="44.4627" lon="5.91249">
        <ele>1099</ele>
        <time>2009-11-23T07:24:21Z</time>
      </trkpt>
      <trkpt lat="44.46243" lon="5.91203">
        <ele>1098</ele>
        <time>2009-11-23T07:24:21Z</time>
      </trkpt>
      <trkpt lat="44.46214" lon="5.91167">
        <ele>1094</ele>
        <time>2009-11-23T07:24:21Z</time>
      </trkpt>
      <trkpt lat="44.46173" lon="5.91142">
        <ele>1086</ele>
        <time>2009-11-23T07:24:21Z</time>
      </trkpt>
      <trkpt lat="44.46105" lon="5.91154">
        <ele>1067</ele>
        <time>2009-11-23T07:24:21Z</time>
      </trkpt>
      <trkpt lat="44.4609" lon="5.91106">
        <ele>1067</ele>
        <time>2009-11-23T07:24:21Z</time>
      </trkpt>
      <trkpt lat="44.46058" lon="5.91126">
        <ele>1054</ele>
        <time>2009-11-23T07:24:21Z</time>
      </trkpt>
      <trkpt lat="44.46009" lon="5.9111">
        <ele>1039</ele>
        <time>2009-11-23T07:24:21Z</time>
      </trkpt>
      <trkpt lat="44.45855" lon="5.91216">
        <ele>964</ele>
        <time>2009-11-23T07:24:21Z</time>
      </trkpt>
      <trkpt lat="44.45841" lon="5.91156">
        <ele>967</ele>
        <time>2009-11-23T07:24:21Z</time>
      </trkpt>
      <trkpt lat="44.45868" lon="5.91092">
        <ele>980</ele>
        <time>2009-11-23T07:24:21Z</time>
      </trkpt>
      <trkpt lat="44.4587" lon="5.91041">
        <ele>980</ele>
        <time>2009-11-23T07:24:21Z</time>
      </trkpt>
      <trkpt lat="44.45885" lon="5.90998">
        <ele>982</ele>
        <time>2009-11-23T07:24:21Z</time>
      </trkpt>
      <trkpt lat="44.45931" lon="5.90879">
        <ele>968</ele>
        <time>2009-11-23T07:24:21Z</time>
      </trkpt>
      <trkpt lat="44.4581" lon="5.90862">
        <ele>946</ele>
        <time>2009-11-23T07:24:21Z</time>
      </trkpt>
      <trkpt lat="44.45725" lon="5.90856">
        <ele>933</ele>
        <time>2009-11-23T07:24:21Z</time>
      </trkpt>
      <trkpt lat="44.45682" lon="5.90869">
        <ele>931</ele>
        <time>2009-11-23T07:24:21Z</time>
      </trkpt>
      <trkpt lat="44.45618" lon="5.90894">
        <ele>924</ele>
        <time>2009-11-23T07:24:21Z</time>
      </trkpt>
      <trkpt lat="44.45578" lon="5.90948">
        <ele>920</ele>
        <time>2009-11-23T07:24:21Z</time>
      </trkpt>
      <trkpt lat="44.4557" lon="5.90982">
        <ele>922</ele>
        <time>2009-11-23T07:24:21Z</time>
      </trkpt>
      <trkpt lat="44.45549" lon="5.90999">
        <ele>921</ele>
        <time>2009-11-23T07:24:21Z</time>
      </trkpt>
      <trkpt lat="44.45529" lon="5.90856">
        <ele>901</ele>
        <time>2009-11-23T07:24:21Z</time>
      </trkpt>
      <trkpt lat="44.45581" lon="5.90797">
        <ele>903</ele>
        <time>2009-11-23T07:24:21Z</time>
      </trkpt>
      <trkpt lat="44.45582" lon="5.9075">
        <ele>895</ele>
        <time>2009-11-23T07:24:21Z</time>
      </trkpt>
      <trkpt lat="44.45549" lon="5.90719">
        <ele>888</ele>
        <time>2009-11-23T07:24:21Z</time>
      </trkpt>
      <trkpt lat="44.4553" lon="5.90696">
        <ele>887</ele>
        <time>2009-11-23T07:24:21Z</time>
      </trkpt>
      <trkpt lat="44.45575" lon="5.90633">
        <ele>895</ele>
        <time>2009-11-23T07:24:21Z</time>
      </trkpt>
      <trkpt lat="44.45601" lon="5.90578">
        <ele>901</ele>
        <time>2009-11-23T07:24:21Z</time>
      </trkpt>
      <trkpt lat="44.45582" lon="5.90552">
        <ele>906</ele>
        <time>2009-11-23T07:24:21Z</time>
      </trkpt>
      <trkpt lat="44.4551" lon="5.90538">
        <ele>916</ele>
        <time>2009-11-23T07:24:21Z</time>
      </trkpt>
      <trkpt lat="44.45444" lon="5.90565">
        <ele>919</ele>
        <time>2009-11-23T07:24:21Z</time>
      </trkpt>
      <trkpt lat="44.45392" lon="5.90578">
        <ele>924</ele>
        <time>2009-11-23T07:24:21Z</time>
      </trkpt>
      <trkpt lat="44.45336" lon="5.90565">
        <ele>931</ele>
        <time>2009-11-23T07:24:21Z</time>
      </trkpt>
      <trkpt lat="44.45308" lon="5.90516">
        <ele>938</ele>
        <time>2009-11-23T07:24:21Z</time>
      </trkpt>
      <trkpt lat="44.45304" lon="5.90449">
        <ele>946</ele>
        <time>2009-11-23T07:24:21Z</time>
      </trkpt>
      <trkpt lat="44.45269" lon="5.90403">
        <ele>952</ele>
        <time>2009-11-23T07:24:21Z</time>
      </trkpt>
      <trkpt lat="44.45249" lon="5.90348">
        <ele>958</ele>
        <time>2009-11-23T07:24:21Z</time>
      </trkpt>
      <trkpt lat="44.45243" lon="5.90304">
        <ele>964</ele>
        <time>2009-11-23T07:24:21Z</time>
      </trkpt>
      <trkpt lat="44.45212" lon="5.9029">
        <ele>965</ele>
        <time>2009-11-23T07:24:21Z</time>
      </trkpt>
      <trkpt lat="44.45177" lon="5.9035">
        <ele>957</ele>
        <time>2009-11-23T07:24:21Z</time>
      </trkpt>
      <trkpt lat="44.45149" lon="5.90427">
        <ele>951</ele>
        <time>2009-11-23T07:24:21Z</time>
      </trkpt>
      <trkpt lat="44.45135" lon="5.90461">
        <ele>947</ele>
        <time>2009-11-23T07:24:21Z</time>
      </trkpt>
      <trkpt lat="44.45062" lon="5.90491">
        <ele>943</ele>
        <time>2009-11-23T07:24:21Z</time>
      </trkpt>
      <trkpt lat="44.44949" lon="5.9065">
        <ele>938</ele>
        <time>2009-11-23T07:24:21Z</time>
      </trkpt>
      <trkpt lat="44.44887" lon="5.9074">
        <ele>929</ele>
        <time>2009-11-23T07:24:21Z</time>
      </trkpt>
      <trkpt lat="44.44805" lon="5.90694">
        <ele>932</ele>
        <time>2009-11-23T07:24:21Z</time>
      </trkpt>
      <trkpt lat="44.44787" lon="5.90718">
        <ele>937</ele>
        <time>2009-11-23T07:24:21Z</time>
      </trkpt>
      <trkpt lat="44.44783" lon="5.90759">
        <ele>939</ele>
        <time>2009-11-23T07:24:21Z</time>
      </trkpt>
      <trkpt lat="44.44819" lon="5.90821">
        <ele>927</ele>
        <time>2009-11-23T07:24:21Z</time>
      </trkpt>
      <trkpt lat="44.44834" lon="5.90837">
        <ele>924</ele>
        <time>2009-11-23T07:24:21Z</time>
      </trkpt>
      <trkpt lat="44.44835" lon="5.90944">
        <ele>923</ele>
        <time>2009-11-23T07:24:21Z</time>
      </trkpt>
      <trkpt lat="44.44816" lon="5.90978">
        <ele>926</ele>
        <time>2009-11-23T07:24:21Z</time>
      </trkpt>
      <trkpt lat="44.44795" lon="5.91005">
        <ele>925</ele>
        <time>2009-11-23T07:24:21Z</time>
      </trkpt>
      <trkpt lat="44.44707" lon="5.91304">
        <ele>902</ele>
        <time>2009-11-23T07:24:21Z</time>
      </trkpt>
      <trkpt lat="44.44688" lon="5.91328">
        <ele>900</ele>
        <time>2009-11-23T07:24:21Z</time>
      </trkpt>
      <trkpt lat="44.44433" lon="5.91425">
        <ele>887</ele>
        <time>2009-11-23T07:24:21Z</time>
      </trkpt>
      <trkpt lat="44.44399" lon="5.91429">
        <ele>884</ele>
        <time>2009-11-23T07:24:21Z</time>
      </trkpt>
      <trkpt lat="44.44254" lon="5.91369">
        <ele>875</ele>
        <time>2009-11-23T07:24:21Z</time>
      </trkpt>
      <trkpt lat="44.4415" lon="5.91337">
        <ele>866</ele>
        <time>2009-11-23T07:24:21Z</time>
      </trkpt>
      <trkpt lat="44.44093" lon="5.9134">
        <ele>863</ele>
        <time>2009-11-23T07:24:21Z</time>
      </trkpt>
      <trkpt lat="44.44052" lon="5.91372">
        <ele>861</ele>
        <time>2009-11-23T07:24:21Z</time>
      </trkpt>
      <trkpt lat="44.44035" lon="5.91418">
        <ele>857</ele>
        <time>2009-11-23T07:24:21Z</time>
      </trkpt>
      <trkpt lat="44.44005" lon="5.91438">
        <ele>860</ele>
        <time>2009-11-23T07:24:21Z</time>
      </trkpt>
      <trkpt lat="44.43972" lon="5.91483">
        <ele>863</ele>
        <time>2009-11-23T07:24:21Z</time>
      </trkpt>
      <trkpt lat="44.4395" lon="5.91538">
        <ele>860</ele>
        <time>2009-11-23T07:24:21Z</time>
      </trkpt>
      <trkpt lat="44.4393" lon="5.91594">
        <ele>852</ele>
        <time>2009-11-23T07:24:21Z</time>
      </trkpt>
      <trkpt lat="44.43892" lon="5.91638">
        <ele>845</ele>
        <time>2009-11-23T07:24:21Z</time>
      </trkpt>
      <trkpt lat="44.4382" lon="5.91703">
        <ele>835</ele>
        <time>2009-11-23T07:24:21Z</time>
      </trkpt>
      <trkpt lat="44.43785" lon="5.91742">
        <ele>830</ele>
        <time>2009-11-23T07:24:21Z</time>
      </trkpt>
      <trkpt lat="44.43717" lon="5.91762">
        <ele>829</ele>
        <time>2009-11-23T07:24:21Z</time>
      </trkpt>
      <trkpt lat="44.43712" lon="5.91709">
        <ele>841</ele>
        <time>2009-11-23T07:24:21Z</time>
      </trkpt>
      <trkpt lat="44.43695" lon="5.91698">
        <ele>843</ele>
        <time>2009-11-23T07:24:21Z</time>
      </trkpt>
      <trkpt lat="44.43674" lon="5.91719">
        <ele>838</ele>
        <time>2009-11-23T07:24:21Z</time>
      </trkpt>
      <trkpt lat="44.43656" lon="5.91771">
        <ele>830</ele>
        <time>2009-11-23T07:24:21Z</time>
      </trkpt>
      <trkpt lat="44.43603" lon="5.91827">
        <ele>824</ele>
        <time>2009-11-23T07:24:21Z</time>
      </trkpt>
      <trkpt lat="44.43558" lon="5.91812">
        <ele>829</ele>
        <time>2009-11-23T07:24:21Z</time>
      </trkpt>
      <trkpt lat="44.43527" lon="5.91791">
        <ele>832</ele>
        <time>2009-11-23T07:24:21Z</time>
      </trkpt>
      <trkpt lat="44.43513" lon="5.918">
        <ele>831</ele>
        <time>2009-11-23T07:24:21Z</time>
      </trkpt>
      <trkpt lat="44.43518" lon="5.9186">
        <ele>821</ele>
        <time>2009-11-23T07:24:21Z</time>
      </trkpt>
      <trkpt lat="44.43459" lon="5.91878">
        <ele>821</ele>
        <time>2009-11-23T07:24:21Z</time>
      </trkpt>
      <trkpt lat="44.43437" lon="5.91933">
        <ele>815</ele>
        <time>2009-11-23T07:24:21Z</time>
      </trkpt>
      <trkpt lat="44.43384" lon="5.91974">
        <ele>812</ele>
        <time>2009-11-23T07:24:21Z</time>
      </trkpt>
      <trkpt lat="44.43338" lon="5.91942">
        <ele>813</ele>
        <time>2009-11-23T07:24:21Z</time>
      </trkpt>
      <trkpt lat="44.43313" lon="5.9195">
        <ele>812</ele>
        <time>2009-11-23T07:24:21Z</time>
      </trkpt>
      <trkpt lat="44.433" lon="5.91915">
        <ele>819</ele>
        <time>2009-11-23T07:24:21Z</time>
      </trkpt>
      <trkpt lat="44.43269" lon="5.91913">
        <ele>821</ele>
        <time>2009-11-23T07:24:21Z</time>
      </trkpt>
      <trkpt lat="44.43211" lon="5.91966">
        <ele>822</ele>
        <time>2009-11-23T07:24:21Z</time>
      </trkpt>
      <trkpt lat="44.43177" lon="5.91979">
        <ele>826</ele>
        <time>2009-11-23T07:24:21Z</time>
      </trkpt>
      <trkpt lat="44.43154" lon="5.91975">
        <ele>828</ele>
        <time>2009-11-23T07:24:21Z</time>
      </trkpt>
      <trkpt lat="44.43139" lon="5.91952">
        <ele>832</ele>
        <time>2009-11-23T07:24:21Z</time>
      </trkpt>
      <trkpt lat="44.43009" lon="5.91884">
        <ele>831</ele>
        <time>2009-11-23T07:24:21Z</time>
      </trkpt>
      <trkpt lat="44.42991" lon="5.91864">
        <ele>833</ele>
        <time>2009-11-23T07:24:21Z</time>
      </trkpt>
      <trkpt lat="44.42965" lon="5.91922">
        <ele>827</ele>
        <time>2009-11-23T07:24:21Z</time>
      </trkpt>
      <trkpt lat="44.42922" lon="5.91935">
        <ele>830</ele>
        <time>2009-11-23T07:24:21Z</time>
      </trkpt>
      <trkpt lat="44.42866" lon="5.91975">
        <ele>832</ele>
        <time>2009-11-23T07:24:21Z</time>
      </trkpt>
      <trkpt lat="44.42745" lon="5.92093">
        <ele>836</ele>
        <time>2009-11-23T07:24:21Z</time>
      </trkpt>
      <trkpt lat="44.42759" lon="5.92028">
        <ele>848</ele>
        <time>2009-11-23T07:24:21Z</time>
      </trkpt>
      <trkpt lat="44.42804" lon="5.91946">
        <ele>852</ele>
        <time>2009-11-23T07:24:21Z</time>
      </trkpt>
      <trkpt lat="44.42794" lon="5.9193">
        <ele>858</ele>
        <time>2009-11-23T07:24:21Z</time>
      </trkpt>
      <trkpt lat="44.42667" lon="5.92076">
        <ele>871</ele>
        <time>2009-11-23T07:24:21Z</time>
      </trkpt>
      <trkpt lat="44.42604" lon="5.92159">
        <ele>872</ele>
        <time>2009-11-23T07:24:21Z</time>
      </trkpt>
      <trkpt lat="44.4259" lon="5.92168">
        <ele>876</ele>
        <time>2009-11-23T07:24:21Z</time>
      </trkpt>
      <trkpt lat="44.42579" lon="5.92155">
        <ele>886</ele>
        <time>2009-11-23T07:24:21Z</time>
      </trkpt>
      <trkpt lat="44.42603" lon="5.92115">
        <ele>888</ele>
        <time>2009-11-23T07:24:21Z</time>
      </trkpt>
      <trkpt lat="44.4266" lon="5.91956">
        <ele>912</ele>
        <time>2009-11-23T07:24:21Z</time>
      </trkpt>
      <trkpt lat="44.42706" lon="5.91858">
        <ele>919</ele>
        <time>2009-11-23T07:24:21Z</time>
      </trkpt>
      <trkpt lat="44.42695" lon="5.91848">
        <ele>927</ele>
        <time>2009-11-23T07:24:21Z</time>
      </trkpt>
      <trkpt lat="44.42539" lon="5.92061">
        <ele>940</ele>
        <time>2009-11-23T07:24:21Z</time>
      </trkpt>
      <trkpt lat="44.42432" lon="5.92189">
        <ele>955</ele>
        <time>2009-11-23T07:24:21Z</time>
      </trkpt>
      <trkpt lat="44.42416" lon="5.92191">
        <ele>958</ele>
        <time>2009-11-23T07:24:21Z</time>
      </trkpt>
      <trkpt lat="44.42422" lon="5.92082">
        <ele>976</ele>
        <time>2009-11-23T07:24:21Z</time>
      </trkpt>
      <trkpt lat="44.42416" lon="5.91994">
        <ele>992</ele>
        <time>2009-11-23T07:24:21Z</time>
      </trkpt>
      <trkpt lat="44.42393" lon="5.91851">
        <ele>1011</ele>
        <time>2009-11-23T07:24:21Z</time>
      </trkpt>
      <trkpt lat="44.42359" lon="5.9172">
        <ele>1016</ele>
        <time>2009-11-23T07:24:21Z</time>
      </trkpt>
      <trkpt lat="44.4234" lon="5.91615">
        <ele>1028</ele>
        <time>2009-11-23T07:24:21Z</time>
      </trkpt>
      <trkpt lat="44.42308" lon="5.91575">
        <ele>1026</ele>
        <time>2009-11-23T07:24:21Z</time>
      </trkpt>
      <trkpt lat="44.42293" lon="5.9154">
        <ele>1035</ele>
        <time>2009-11-23T07:24:21Z</time>
      </trkpt>
      <trkpt lat="44.42266" lon="5.91532">
        <ele>1029</ele>
        <time>2009-11-23T07:24:21Z</time>
      </trkpt>
      <trkpt lat="44.42257" lon="5.91487">
        <ele>1037</ele>
        <time>2009-11-23T07:24:21Z</time>
      </trkpt>
      <trkpt lat="44.42165" lon="5.9134">
        <ele>1040</ele>
        <time>2009-11-23T07:24:21Z</time>
      </trkpt>
      <trkpt lat="44.42145" lon="5.9132">
        <ele>1039</ele>
        <time>2009-11-23T07:24:21Z</time>
      </trkpt>
      <trkpt lat="44.42135" lon="5.91285">
        <ele>1047</ele>
        <time>2009-11-23T07:24:21Z</time>
      </trkpt>
      <trkpt lat="44.42101" lon="5.91283">
        <ele>1038</ele>
        <time>2009-11-23T07:24:21Z</time>
      </trkpt>
      <trkpt lat="44.42064" lon="5.91255">
        <ele>1048</ele>
        <time>2009-11-23T07:24:21Z</time>
      </trkpt>
      <trkpt lat="44.41988" lon="5.91385">
        <ele>1048</ele>
        <time>2009-11-23T07:24:21Z</time>
      </trkpt>
      <trkpt lat="44.4196" lon="5.91481">
        <ele>1052</ele>
        <time>2009-11-23T07:24:21Z</time>
      </trkpt>
      <trkpt lat="44.41938" lon="5.91533">
        <ele>1054</ele>
        <time>2009-11-23T07:24:21Z</time>
      </trkpt>
      <trkpt lat="44.41882" lon="5.9158">
        <ele>1065</ele>
        <time>2009-11-23T07:24:21Z</time>
      </trkpt>
      <trkpt lat="44.41807" lon="5.91606">
        <ele>1077</ele>
        <time>2009-11-23T07:24:21Z</time>
      </trkpt>
      <trkpt lat="44.41773" lon="5.9156">
        <ele>1099</ele>
        <time>2009-11-23T07:24:21Z</time>
      </trkpt>
      <trkpt lat="44.41752" lon="5.91515">
        <ele>1113</ele>
        <time>2009-11-23T07:24:21Z</time>
      </trkpt>
      <trkpt lat="44.41696" lon="5.91508">
        <ele>1098</ele>
        <time>2009-11-23T07:24:21Z</time>
      </trkpt>
      <trkpt lat="44.4165" lon="5.91455">
        <ele>1115</ele>
        <time>2009-11-23T07:24:21Z</time>
      </trkpt>
      <trkpt lat="44.41619" lon="5.91431">
        <ele>1116</ele>
        <time>2009-11-23T07:24:21Z</time>
      </trkpt>
      <trkpt lat="44.41598" lon="5.91339">
        <ele>1139</ele>
        <time>2009-11-23T07:24:21Z</time>
      </trkpt>
      <trkpt lat="44.41592" lon="5.91235">
        <ele>1156</ele>
        <time>2009-11-23T07:24:21Z</time>
      </trkpt>
      <trkpt lat="44.41579" lon="5.91155">
        <ele>1163</ele>
        <time>2009-11-23T07:24:21Z</time>
      </trkpt>
      <trkpt lat="44.4157" lon="5.91095">
        <ele>1170</ele>
        <time>2009-11-23T07:24:21Z</time>
      </trkpt>
      <trkpt lat="44.41579" lon="5.91001">
        <ele>1185</ele>
        <time>2009-11-23T07:24:21Z</time>
      </trkpt>
      <trkpt lat="44.41616" lon="5.9063">
        <ele>1207</ele>
        <time>2009-11-23T07:24:21Z</time>
      </trkpt>
      <trkpt lat="44.41599" lon="5.90607">
        <ele>1203</ele>
        <time>2009-11-23T07:24:21Z</time>
      </trkpt>
      <trkpt lat="44.41571" lon="5.90624">
        <ele>1196</ele>
        <time>2009-11-23T07:24:21Z</time>
      </trkpt>
      <trkpt lat="44.41557" lon="5.90655">
        <ele>1196</ele>
        <time>2009-11-23T07:24:21Z</time>
      </trkpt>
      <trkpt lat="44.41493" lon="5.90735">
        <ele>1206</ele>
        <time>2009-11-23T07:24:21Z</time>
      </trkpt>
      <trkpt lat="44.41456" lon="5.90768">
        <ele>1217</ele>
        <time>2009-11-23T07:24:21Z</time>
      </trkpt>
      <trkpt lat="44.4143" lon="5.9081">
        <ele>1216</ele>
        <time>2009-11-23T07:24:21Z</time>
      </trkpt>
      <trkpt lat="44.41394" lon="5.90814">
        <ele>1227</ele>
        <time>2009-11-23T07:24:21Z</time>
      </trkpt>
      <trkpt lat="44.41338" lon="5.90892">
        <ele>1222</ele>
        <time>2009-11-23T07:24:21Z</time>
      </trkpt>
      <trkpt lat="44.4132" lon="5.90881">
        <ele>1230</ele>
        <time>2009-11-23T07:24:21Z</time>
      </trkpt>
      <trkpt lat="44.41335" lon="5.90826">
        <ele>1235</ele>
        <time>2009-11-23T07:24:21Z</time>
      </trkpt>
      <trkpt lat="44.41384" lon="5.90766">
        <ele>1244</ele>
        <time>2009-11-23T07:24:21Z</time>
      </trkpt>
      <trkpt lat="44.41426" lon="5.90678">
        <ele>1254</ele>
        <time>2009-11-23T07:24:21Z</time>
      </trkpt>
      <trkpt lat="44.41462" lon="5.90608">
        <ele>1256</ele>
        <time>2009-11-23T07:24:21Z</time>
      </trkpt>
      <trkpt lat="44.41483" lon="5.90559">
        <ele>1258</ele>
        <time>2009-11-23T07:24:21Z</time>
      </trkpt>
      <trkpt lat="44.41499" lon="5.9051">
        <ele>1263</ele>
        <time>2009-11-23T07:24:21Z</time>
      </trkpt>
      <trkpt lat="44.41459" lon="5.90535">
        <ele>1270</ele>
        <time>2009-11-23T07:24:21Z</time>
      </trkpt>
      <trkpt lat="44.41423" lon="5.90565">
        <ele>1277</ele>
        <time>2009-11-23T07:24:21Z</time>
      </trkpt>
      <trkpt lat="44.41404" lon="5.90588">
        <ele>1278</ele>
        <time>2009-11-23T07:24:21Z</time>
      </trkpt>
      <trkpt lat="44.41353" lon="5.9062">
        <ele>1286</ele>
        <time>2009-11-23T07:24:21Z</time>
      </trkpt>
      <trkpt lat="44.4132" lon="5.90677">
        <ele>1285</ele>
        <time>2009-11-23T07:24:21Z</time>
      </trkpt>
      <trkpt lat="44.41302" lon="5.90742">
        <ele>1277</ele>
        <time>2009-11-23T07:24:21Z</time>
      </trkpt>
      <trkpt lat="44.41214" lon="5.9074">
        <ele>1303</ele>
        <time>2009-11-23T07:24:21Z</time>
      </trkpt>
      <trkpt lat="44.41153" lon="5.90836">
        <ele>1311</ele>
        <time>2009-11-23T07:24:21Z</time>
      </trkpt>
      <trkpt lat="44.41076" lon="5.90976">
        <ele>1332</ele>
        <time>2009-11-23T07:24:21Z</time>
      </trkpt>
      <trkpt lat="44.41019" lon="5.91129">
        <ele>1350</ele>
        <time>2009-11-23T07:24:21Z</time>
      </trkpt>
      <trkpt lat="44.41008" lon="5.91144">
        <ele>1352</ele>
        <time>2009-11-23T07:24:21Z</time>
      </trkpt>
      <trkpt lat="44.40986" lon="5.91105">
        <ele>1350</ele>
        <time>2009-11-23T07:24:21Z</time>
      </trkpt>
      <trkpt lat="44.40974" lon="5.91067">
        <ele>1351</ele>
        <time>2009-11-23T07:24:21Z</time>
      </trkpt>
      <trkpt lat="44.40906" lon="5.91">
        <ele>1331</ele>
        <time>2009-11-23T07:24:21Z</time>
      </trkpt>
      <trkpt lat="44.4088" lon="5.90904">
        <ele>1329</ele>
        <time>2009-11-23T07:24:21Z</time>
      </trkpt>
      <trkpt lat="44.40812" lon="5.9052">
        <ele>1295</ele>
        <time>2009-11-23T07:24:21Z</time>
      </trkpt>
      <trkpt lat="44.40836" lon="5.90471">
        <ele>1297</ele>
        <time>2009-11-23T07:24:21Z</time>
      </trkpt>
      <trkpt lat="44.40899" lon="5.90412">
        <ele>1295</ele>
        <time>2009-11-23T07:24:21Z</time>
      </trkpt>
      <trkpt lat="44.41009" lon="5.90353">
        <ele>1297</ele>
        <time>2009-11-23T07:24:21Z</time>
      </trkpt>
      <trkpt lat="44.4105" lon="5.90318">
        <ele>1299</ele>
        <time>2009-11-23T07:24:21Z</time>
      </trkpt>
      <trkpt lat="44.4103" lon="5.90182">
        <ele>1280</ele>
        <time>2009-11-23T07:24:21Z</time>
      </trkpt>
      <trkpt lat="44.4105" lon="5.9012">
        <ele>1284</ele>
        <time>2009-11-23T07:24:21Z</time>
      </trkpt>
      <trkpt lat="44.41079" lon="5.90069">
        <ele>1287</ele>
        <time>2009-11-23T07:24:21Z</time>
      </trkpt>
      <trkpt lat="44.41082" lon="5.90025">
        <ele>1281</ele>
        <time>2009-11-23T07:24:21Z</time>
      </trkpt>
      <trkpt lat="44.41064" lon="5.89977">
        <ele>1263</ele>
        <time>2009-11-23T07:24:21Z</time>
      </trkpt>
      <trkpt lat="44.41044" lon="5.89947">
        <ele>1254</ele>
        <time>2009-11-23T07:24:21Z</time>
      </trkpt>
      <trkpt lat="44.41119" lon="5.89873">
        <ele>1275</ele>
        <time>2009-11-23T07:24:21Z</time>
      </trkpt>
      <trkpt lat="44.41199" lon="5.89813">
        <ele>1287</ele>
        <time>2009-11-23T07:24:21Z</time>
      </trkpt>
      <trkpt lat="44.41275" lon="5.89783">
        <ele>1294</ele>
        <time>2009-11-23T07:24:21Z</time>
      </trkpt>
      <trkpt lat="44.41359" lon="5.89763">
        <ele>1295</ele>
        <time>2009-11-23T07:24:21Z</time>
      </trkpt>
      <trkpt lat="44.41379" lon="5.89701">
        <ele>1281</ele>
        <time>2009-11-23T07:24:21Z</time>
      </trkpt>
      <trkpt lat="44.41407" lon="5.89659">
        <ele>1278</ele>
        <time>2009-11-23T07:24:21Z</time>
      </trkpt>
      <trkpt lat="44.41448" lon="5.89646">
        <ele>1294</ele>
        <time>2009-11-23T07:24:21Z</time>
      </trkpt>
      <trkpt lat="44.41451" lon="5.89543">
        <ele>1285</ele>
        <time>2009-11-23T07:24:21Z</time>
      </trkpt>
      <trkpt lat="44.41437" lon="5.89482">
        <ele>1274</ele>
        <time>2009-11-23T07:24:21Z</time>
      </trkpt>
      <trkpt lat="44.41537" lon="5.8941">
        <ele>1308</ele>
        <time>2009-11-23T07:24:21Z</time>
      </trkpt>
      <trkpt lat="44.4154" lon="5.89366">
        <ele>1294</ele>
        <time>2009-11-23T07:24:21Z</time>
      </trkpt>
      <trkpt lat="44.41519" lon="5.8934">
        <ele>1278</ele>
        <time>2009-11-23T07:24:21Z</time>
      </trkpt>
      <trkpt lat="44.41511" lon="5.89286">
        <ele>1278</ele>
        <time>2009-11-23T07:24:21Z</time>
      </trkpt>
      <trkpt lat="44.41508" lon="5.89239">
        <ele>1281</ele>
        <time>2009-11-23T07:24:21Z</time>
      </trkpt>
      <trkpt lat="44.41551" lon="5.89169">
        <ele>1301</ele>
        <time>2009-11-23T07:24:21Z</time>
      </trkpt>
      <trkpt lat="44.41598" lon="5.89122">
        <ele>1316</ele>
        <time>2009-11-23T07:24:21Z</time>
      </trkpt>
      <trkpt lat="44.41588" lon="5.8908">
        <ele>1297</ele>
        <time>2009-11-23T07:24:21Z</time>
      </trkpt>
      <trkpt lat="44.41598" lon="5.89043">
        <ele>1302</ele>
        <time>2009-11-23T07:24:21Z</time>
      </trkpt>
      <trkpt lat="44.41593" lon="5.89002">
        <ele>1296</ele>
        <time>2009-11-23T07:24:21Z</time>
      </trkpt>
      <trkpt lat="44.41585" lon="5.88958">
        <ele>1295</ele>
        <time>2009-11-23T07:24:21Z</time>
      </trkpt>
      <trkpt lat="44.41582" lon="5.88901">
        <ele>1303</ele>
        <time>2009-11-23T07:24:21Z</time>
      </trkpt>
      <trkpt lat="44.41567" lon="5.88875">
        <ele>1296</ele>
        <time>2009-11-23T07:24:21Z</time>
      </trkpt>
      <trkpt lat="44.41552" lon="5.88852">
        <ele>1287</ele>
        <time>2009-11-23T07:24:21Z</time>
      </trkpt>
      <trkpt lat="44.4155" lon="5.88799">
        <ele>1292</ele>
        <time>2009-11-23T07:24:21Z</time>
      </trkpt>
      <trkpt lat="44.41542" lon="5.88757">
        <ele>1293</ele>
        <time>2009-11-23T07:24:21Z</time>
      </trkpt>
      <trkpt lat="44.41512" lon="5.88711">
        <ele>1286</ele>
        <time>2009-11-23T07:24:21Z</time>
      </trkpt>
      <trkpt lat="44.41555" lon="5.88645">
        <ele>1286</ele>
        <time>2009-11-23T07:24:21Z</time>
      </trkpt>
      <trkpt lat="44.41635" lon="5.88603">
        <ele>1287</ele>
        <time>2009-11-23T07:24:21Z</time>
      </trkpt>
      <trkpt lat="44.41674" lon="5.88577">
        <ele>1282</ele>
        <time>2009-11-23T07:24:21Z</time>
      </trkpt>
      <trkpt lat="44.41727" lon="5.88537">
        <ele>1273</ele>
        <time>2009-11-23T07:24:21Z</time>
      </trkpt>
      <trkpt lat="44.41798" lon="5.8851">
        <ele>1275</ele>
        <time>2009-11-23T07:24:21Z</time>
      </trkpt>
      <trkpt lat="44.41816" lon="5.88435">
        <ele>1249</ele>
        <time>2009-11-23T07:24:21Z</time>
      </trkpt>
      <trkpt lat="44.4185" lon="5.88406">
        <ele>1247</ele>
        <time>2009-11-23T07:24:21Z</time>
      </trkpt>
      <trkpt lat="44.41909" lon="5.88394">
        <ele>1239</ele>
        <time>2009-11-23T07:24:21Z</time>
      </trkpt>
      <trkpt lat="44.4195" lon="5.8839">
        <ele>1242</ele>
        <time>2009-11-23T07:24:21Z</time>
      </trkpt>
      <trkpt lat="44.41957" lon="5.88316">
        <ele>1223</ele>
        <time>2009-11-23T07:24:21Z</time>
      </trkpt>
      <trkpt lat="44.42003" lon="5.88271">
        <ele>1226</ele>
        <time>2009-11-23T07:24:21Z</time>
      </trkpt>
      <trkpt lat="44.42029" lon="5.88245">
        <ele>1222</ele>
        <time>2009-11-23T07:24:21Z</time>
      </trkpt>
      <trkpt lat="44.42003" lon="5.88196">
        <ele>1202</ele>
        <time>2009-11-23T07:24:21Z</time>
      </trkpt>
      <trkpt lat="44.41972" lon="5.88134">
        <ele>1191</ele>
        <time>2009-11-23T07:24:21Z</time>
      </trkpt>
      <trkpt lat="44.41938" lon="5.8806">
        <ele>1195</ele>
        <time>2009-11-23T07:24:21Z</time>
      </trkpt>
      <trkpt lat="44.41906" lon="5.88023">
        <ele>1190</ele>
        <time>2009-11-23T07:24:21Z</time>
      </trkpt>
      <trkpt lat="44.41906" lon="5.88071">
        <ele>1171</ele>
        <time>2009-11-23T07:24:21Z</time>
      </trkpt>
      <trkpt lat="44.4193" lon="5.88116">
        <ele>1173</ele>
        <time>2009-11-23T07:24:21Z</time>
      </trkpt>
      <trkpt lat="44.41896" lon="5.88104">
        <ele>1159</ele>
        <time>2009-11-23T07:24:21Z</time>
      </trkpt>
      <trkpt lat="44.41888" lon="5.88076">
        <ele>1158</ele>
        <time>2009-11-23T07:24:21Z</time>
      </trkpt>
      <trkpt lat="44.41827" lon="5.88028">
        <ele>1150</ele>
        <time>2009-11-23T07:24:21Z</time>
      </trkpt>
      <trkpt lat="44.41781" lon="5.87972">
        <ele>1149</ele>
        <time>2009-11-23T07:24:21Z</time>
      </trkpt>
      <trkpt lat="44.4178" lon="5.8794">
        <ele>1159</ele>
        <time>2009-11-23T07:24:21Z</time>
      </trkpt>
      <trkpt lat="44.41787" lon="5.87868">
        <ele>1187</ele>
        <time>2009-11-23T07:24:21Z</time>
      </trkpt>
      <trkpt lat="44.41787" lon="5.8779">
        <ele>1189</ele>
        <time>2009-11-23T07:24:21Z</time>
      </trkpt>
      <trkpt lat="44.41794" lon="5.87724">
        <ele>1187</ele>
        <time>2009-11-23T07:24:21Z</time>
      </trkpt>
      <trkpt lat="44.41786" lon="5.87696">
        <ele>1163</ele>
        <time>2009-11-23T07:24:21Z</time>
      </trkpt>
      <trkpt lat="44.41778" lon="5.8773">
        <ele>1156</ele>
        <time>2009-11-23T07:24:21Z</time>
      </trkpt>
      <trkpt lat="44.41751" lon="5.87788">
        <ele>1121</ele>
        <time>2009-11-23T07:24:21Z</time>
      </trkpt>
      <trkpt lat="44.41726" lon="5.8788">
        <ele>1103</ele>
        <time>2009-11-23T07:24:21Z</time>
      </trkpt>
      <trkpt lat="44.4172" lon="5.87918">
        <ele>1103</ele>
        <time>2009-11-23T07:24:21Z</time>
      </trkpt>
      <trkpt lat="44.41718" lon="5.87965">
        <ele>1110</ele>
        <time>2009-11-23T07:24:21Z</time>
      </trkpt>
      <trkpt lat="44.41706" lon="5.87995">
        <ele>1113</ele>
        <time>2009-11-23T07:24:21Z</time>
      </trkpt>
      <trkpt lat="44.41704" lon="5.87932">
        <ele>1092</ele>
        <time>2009-11-23T07:24:21Z</time>
      </trkpt>
      <trkpt lat="44.41702" lon="5.8786">
        <ele>1079</ele>
        <time>2009-11-23T07:24:21Z</time>
      </trkpt>
      <trkpt lat="44.41714" lon="5.8776">
        <ele>1080</ele>
        <time>2009-11-23T07:24:21Z</time>
      </trkpt>
      <trkpt lat="44.41717" lon="5.87729">
        <ele>1080</ele>
        <time>2009-11-23T07:24:21Z</time>
      </trkpt>
      <trkpt lat="44.4171" lon="5.87663">
        <ele>1067</ele>
        <time>2009-11-23T07:24:21Z</time>
      </trkpt>
      <trkpt lat="44.41697" lon="5.87718">
        <ele>1064</ele>
        <time>2009-11-23T07:24:21Z</time>
      </trkpt>
      <trkpt lat="44.41651" lon="5.8781">
        <ele>1040</ele>
        <time>2009-11-23T07:24:21Z</time>
      </trkpt>
      <trkpt lat="44.41649" lon="5.8775">
        <ele>1030</ele>
        <time>2009-11-23T07:24:21Z</time>
      </trkpt>
      <trkpt lat="44.41638" lon="5.87667">
        <ele>1008</ele>
        <time>2009-11-23T07:24:21Z</time>
      </trkpt>
      <trkpt lat="44.41647" lon="5.87608">
        <ele>1005</ele>
        <time>2009-11-23T07:24:21Z</time>
      </trkpt>
      <trkpt lat="44.41666" lon="5.87569">
        <ele>1011</ele>
        <time>2009-11-23T07:24:21Z</time>
      </trkpt>
      <trkpt lat="44.41648" lon="5.87499">
        <ele>988</ele>
        <time>2009-11-23T07:24:21Z</time>
      </trkpt>
      <trkpt lat="44.41641" lon="5.87564">
        <ele>992</ele>
        <time>2009-11-23T07:24:21Z</time>
      </trkpt>
      <trkpt lat="44.41626" lon="5.8761">
        <ele>989</ele>
        <time>2009-11-23T07:24:21Z</time>
      </trkpt>
      <trkpt lat="44.41589" lon="5.87642">
        <ele>973</ele>
        <time>2009-11-23T07:24:21Z</time>
      </trkpt>
      <trkpt lat="44.41574" lon="5.87698">
        <ele>972</ele>
        <time>2009-11-23T07:24:21Z</time>
      </trkpt>
      <trkpt lat="44.41538" lon="5.87755">
        <ele>969</ele>
        <time>2009-11-23T07:24:21Z</time>
      </trkpt>
      <trkpt lat="44.41481" lon="5.87777">
        <ele>953</ele>
        <time>2009-11-23T07:24:21Z</time>
      </trkpt>
      <trkpt lat="44.41461" lon="5.87776">
        <ele>949</ele>
        <time>2009-11-23T07:24:21Z</time>
      </trkpt>
      <trkpt lat="44.41434" lon="5.8779">
        <ele>948</ele>
        <time>2009-11-23T07:24:21Z</time>
      </trkpt>
      <trkpt lat="44.41389" lon="5.87768">
        <ele>930</ele>
        <time>2009-11-23T07:24:21Z</time>
      </trkpt>
      <trkpt lat="44.41402" lon="5.87722">
        <ele>917</ele>
        <time>2009-11-23T07:24:21Z</time>
      </trkpt>
      <trkpt lat="44.41397" lon="5.87677">
        <ele>903</ele>
        <time>2009-11-23T07:24:21Z</time>
      </trkpt>
      <trkpt lat="44.41433" lon="5.87592">
        <ele>890</ele>
        <time>2009-11-23T07:24:21Z</time>
      </trkpt>
      <trkpt lat="44.41449" lon="5.87587">
        <ele>891</ele>
        <time>2009-11-23T07:24:21Z</time>
      </trkpt>
      <trkpt lat="44.41433" lon="5.87526">
        <ele>882</ele>
        <time>2009-11-23T07:24:21Z</time>
      </trkpt>
      <trkpt lat="44.41378" lon="5.87488">
        <ele>862</ele>
        <time>2009-11-23T07:24:21Z</time>
      </trkpt>
      <trkpt lat="44.41358" lon="5.87424">
        <ele>850</ele>
        <time>2009-11-23T07:24:21Z</time>
      </trkpt>
      <trkpt lat="44.41316" lon="5.87399">
        <ele>839</ele>
        <time>2009-11-23T07:24:21Z</time>
      </trkpt>
      <trkpt lat="44.41281" lon="5.87353">
        <ele>834</ele>
        <time>2009-11-23T07:24:21Z</time>
      </trkpt>
      <trkpt lat="44.41212" lon="5.87352">
        <ele>831</ele>
        <time>2009-11-23T07:24:21Z</time>
      </trkpt>
      <trkpt lat="44.41203" lon="5.87273">
        <ele>824</ele>
        <time>2009-11-23T07:24:21Z</time>
      </trkpt>
      <trkpt lat="44.41179" lon="5.87246">
        <ele>820</ele>
        <time>2009-11-23T07:24:21Z</time>
      </trkpt>
      <trkpt lat="44.4119" lon="5.87172">
        <ele>823</ele>
        <time>2009-11-23T07:24:21Z</time>
      </trkpt>
      <trkpt lat="44.41169" lon="5.87139">
        <ele>820</ele>
        <time>2009-11-23T07:24:21Z</time>
      </trkpt>
      <trkpt lat="44.41154" lon="5.87116">
        <ele>819</ele>
        <time>2009-11-23T07:24:21Z</time>
      </trkpt>
      <trkpt lat="44.41167" lon="5.87001">
        <ele>823</ele>
        <time>2009-11-23T07:24:21Z</time>
      </trkpt>
      <trkpt lat="44.41171" lon="5.86941">
        <ele>818</ele>
        <time>2009-11-23T07:24:21Z</time>
      </trkpt>
      <trkpt lat="44.41217" lon="5.86891">
        <ele>819</ele>
        <time>2009-11-23T07:24:21Z</time>
      </trkpt>
      <trkpt lat="44.41297" lon="5.86852">
        <ele>822</ele>
        <time>2009-11-23T07:24:21Z</time>
      </trkpt>
      <trkpt lat="44.41288" lon="5.86801">
        <ele>814</ele>
        <time>2009-11-23T07:24:21Z</time>
      </trkpt>
      <trkpt lat="44.41318" lon="5.86775">
        <ele>817</ele>
        <time>2009-11-23T07:24:21Z</time>
      </trkpt>
      <trkpt lat="44.41381" lon="5.86766">
        <ele>823</ele>
        <time>2009-11-23T07:24:21Z</time>
      </trkpt>
      <trkpt lat="44.41575" lon="5.86769">
        <ele>847</ele>
        <time>2009-11-23T07:24:21Z</time>
      </trkpt>
      <trkpt lat="44.41613" lon="5.86765">
        <ele>854</ele>
        <time>2009-11-23T07:24:21Z</time>
      </trkpt>
      <trkpt lat="44.41612" lon="5.8674">
        <ele>859</ele>
        <time>2009-11-23T07:24:21Z</time>
      </trkpt>
      <trkpt lat="44.41579" lon="5.86646">
        <ele>865</ele>
        <time>2009-11-23T07:24:21Z</time>
      </trkpt>
      <trkpt lat="44.41556" lon="5.86579">
        <ele>870</ele>
        <time>2009-11-23T07:24:21Z</time>
      </trkpt>
      <trkpt lat="44.41527" lon="5.86571">
        <ele>867</ele>
        <time>2009-11-23T07:24:21Z</time>
      </trkpt>
      <trkpt lat="44.41479" lon="5.8659">
        <ele>856</ele>
        <time>2009-11-23T07:24:21Z</time>
      </trkpt>
      <trkpt lat="44.41457" lon="5.86582">
        <ele>856</ele>
        <time>2009-11-23T07:24:21Z</time>
      </trkpt>
      <trkpt lat="44.41418" lon="5.86602">
        <ele>851</ele>
        <time>2009-11-23T07:24:21Z</time>
      </trkpt>
      <trkpt lat="44.41402" lon="5.86532">
        <ele>859</ele>
        <time>2009-11-23T07:24:21Z</time>
      </trkpt>
      <trkpt lat="44.41443" lon="5.86446">
        <ele>863</ele>
        <time>2009-11-23T07:24:21Z</time>
      </trkpt>
      <trkpt lat="44.41457" lon="5.86369">
        <ele>851</ele>
        <time>2009-11-23T07:24:21Z</time>
      </trkpt>
      <trkpt lat="44.41454" lon="5.86322">
        <ele>843</ele>
        <time>2009-11-23T07:24:21Z</time>
      </trkpt>
      <trkpt lat="44.41335" lon="5.86399">
        <ele>833</ele>
        <time>2009-11-23T07:24:21Z</time>
      </trkpt>
      <trkpt lat="44.41283" lon="5.86333">
        <ele>824</ele>
        <time>2009-11-23T07:24:21Z</time>
      </trkpt>
      <trkpt lat="44.4123" lon="5.86279">
        <ele>821</ele>
        <time>2009-11-23T07:24:21Z</time>
      </trkpt>
      <trkpt lat="44.41155" lon="5.86165">
        <ele>836</ele>
        <time>2009-11-23T07:24:21Z</time>
      </trkpt>
      <trkpt lat="44.41124" lon="5.86081">
        <ele>843</ele>
        <time>2009-11-23T07:24:21Z</time>
      </trkpt>
      <trkpt lat="44.41072" lon="5.86037">
        <ele>837</ele>
        <time>2009-11-23T07:24:21Z</time>
      </trkpt>
      <trkpt lat="44.41055" lon="5.85998">
        <ele>836</ele>
        <time>2009-11-23T07:24:21Z</time>
      </trkpt>
      <trkpt lat="44.41059" lon="5.85945">
        <ele>834</ele>
        <time>2009-11-23T07:24:21Z</time>
      </trkpt>
      <trkpt lat="44.41095" lon="5.85878">
        <ele>829</ele>
        <time>2009-11-23T07:24:21Z</time>
      </trkpt>
      <trkpt lat="44.41089" lon="5.85837">
        <ele>817</ele>
        <time>2009-11-23T07:24:21Z</time>
      </trkpt>
      <trkpt lat="44.41095" lon="5.85806">
        <ele>820</ele>
        <time>2009-11-23T07:24:21Z</time>
      </trkpt>
      <trkpt lat="44.4116" lon="5.85751">
        <ele>841</ele>
        <time>2009-11-23T07:24:21Z</time>
      </trkpt>
      <trkpt lat="44.41164" lon="5.85691">
        <ele>845</ele>
        <time>2009-11-23T07:24:21Z</time>
      </trkpt>
      <trkpt lat="44.4115" lon="5.85634">
        <ele>844</ele>
        <time>2009-11-23T07:24:21Z</time>
      </trkpt>
      <trkpt lat="44.41199" lon="5.8558">
        <ele>858</ele>
        <time>2009-11-23T07:24:21Z</time>
      </trkpt>
      <trkpt lat="44.41207" lon="5.85527">
        <ele>858</ele>
        <time>2009-11-23T07:24:21Z</time>
      </trkpt>
      <trkpt lat="44.41222" lon="5.85478">
        <ele>860</ele>
        <time>2009-11-23T07:24:21Z</time>
      </trkpt>
      <trkpt lat="44.41255" lon="5.85433">
        <ele>867</ele>
        <time>2009-11-23T07:24:21Z</time>
      </trkpt>
      <trkpt lat="44.41235" lon="5.85375">
        <ele>861</ele>
        <time>2009-11-23T07:24:21Z</time>
      </trkpt>
      <trkpt lat="44.41238" lon="5.85338">
        <ele>863</ele>
        <time>2009-11-23T07:24:21Z</time>
      </trkpt>
      <trkpt lat="44.41258" lon="5.85273">
        <ele>867</ele>
        <time>2009-11-23T07:24:21Z</time>
      </trkpt>
      <trkpt lat="44.41194" lon="5.85178">
        <ele>853</ele>
        <time>2009-11-23T07:24:21Z</time>
      </trkpt>
      <trkpt lat="44.41163" lon="5.8516">
        <ele>849</ele>
        <time>2009-11-23T07:24:21Z</time>
      </trkpt>
      <trkpt lat="44.4115" lon="5.85135">
        <ele>848</ele>
        <time>2009-11-23T07:24:21Z</time>
      </trkpt>
      <trkpt lat="44.41138" lon="5.85084">
        <ele>846</ele>
        <time>2009-11-23T07:24:21Z</time>
      </trkpt>
      <trkpt lat="44.41144" lon="5.85053">
        <ele>844</ele>
        <time>2009-11-23T07:24:21Z</time>
      </trkpt>
      <trkpt lat="44.41171" lon="5.85045">
        <ele>845</ele>
        <time>2009-11-23T07:24:21Z</time>
      </trkpt>
      <trkpt lat="44.41163" lon="5.85022">
        <ele>843</ele>
        <time>2009-11-23T07:24:21Z</time>
      </trkpt>
      <trkpt lat="44.41126" lon="5.84973">
        <ele>849</ele>
        <time>2009-11-23T07:24:21Z</time>
      </trkpt>
      <trkpt lat="44.41093" lon="5.84958">
        <ele>847</ele>
        <time>2009-11-23T07:24:21Z</time>
      </trkpt>
      <trkpt lat="44.41067" lon="5.84935">
        <ele>849</ele>
        <time>2009-11-23T07:24:21Z</time>
      </trkpt>
      <trkpt lat="44.41007" lon="5.84909">
        <ele>851</ele>
        <time>2009-11-23T07:24:21Z</time>
      </trkpt>
      <trkpt lat="44.40944" lon="5.84889">
        <ele>858</ele>
        <time>2009-11-23T07:24:21Z</time>
      </trkpt>
      <trkpt lat="44.40898" lon="5.84871">
        <ele>863</ele>
        <time>2009-11-23T07:24:21Z</time>
      </trkpt>
      <trkpt lat="44.4088" lon="5.84841">
        <ele>869</ele>
        <time>2009-11-23T07:24:21Z</time>
      </trkpt>
      <trkpt lat="44.40878" lon="5.84791">
        <ele>878</ele>
        <time>2009-11-23T07:24:21Z</time>
      </trkpt>
      <trkpt lat="44.40895" lon="5.84739">
        <ele>886</ele>
        <time>2009-11-23T07:24:21Z</time>
      </trkpt>
      <trkpt lat="44.40892" lon="5.84692">
        <ele>889</ele>
        <time>2009-11-23T07:24:21Z</time>
      </trkpt>
      <trkpt lat="44.40865" lon="5.84627">
        <ele>890</ele>
        <time>2009-11-23T07:24:21Z</time>
      </trkpt>
      <trkpt lat="44.40866" lon="5.84586">
        <ele>890</ele>
        <time>2009-11-23T07:24:21Z</time>
      </trkpt>
      <trkpt lat="44.40906" lon="5.84539">
        <ele>892</ele>
        <time>2009-11-23T07:24:21Z</time>
      </trkpt>
      <trkpt lat="44.40927" lon="5.84502">
        <ele>891</ele>
        <time>2009-11-23T07:24:21Z</time>
      </trkpt>
      <trkpt lat="44.40957" lon="5.84476">
        <ele>893</ele>
        <time>2009-11-23T07:24:21Z</time>
      </trkpt>
      <trkpt lat="44.4099" lon="5.8444">
        <ele>898</ele>
        <time>2009-11-23T07:24:21Z</time>
      </trkpt>
      <trkpt lat="44.40991" lon="5.84415">
        <ele>896</ele>
        <time>2009-11-23T07:24:21Z</time>
      </trkpt>
      <trkpt lat="44.40969" lon="5.84386">
        <ele>886</ele>
        <time>2009-11-23T07:24:21Z</time>
      </trkpt>
      <trkpt lat="44.40939" lon="5.84355">
        <ele>886</ele>
        <time>2009-11-23T07:24:21Z</time>
      </trkpt>
      <trkpt lat="44.4094" lon="5.8433">
        <ele>890</ele>
        <time>2009-11-23T07:24:21Z</time>
      </trkpt>
      <trkpt lat="44.40898" lon="5.84309">
        <ele>891</ele>
        <time>2009-11-23T07:24:21Z</time>
      </trkpt>
      <trkpt lat="44.40855" lon="5.84303">
        <ele>889</ele>
        <time>2009-11-23T07:24:21Z</time>
      </trkpt>
      <trkpt lat="44.40824" lon="5.84282">
        <ele>891</ele>
        <time>2009-11-23T07:24:21Z</time>
      </trkpt>
      <trkpt lat="44.40803" lon="5.8424">
        <ele>896</ele>
        <time>2009-11-23T07:24:21Z</time>
      </trkpt>
      <trkpt lat="44.4077" lon="5.84226">
        <ele>898</ele>
        <time>2009-11-23T07:24:21Z</time>
      </trkpt>
      <trkpt lat="44.40695" lon="5.84227">
        <ele>901</ele>
        <time>2009-11-23T07:24:21Z</time>
      </trkpt>
      <trkpt lat="44.40587" lon="5.8423">
        <ele>914</ele>
        <time>2009-11-23T07:24:21Z</time>
      </trkpt>
      <trkpt lat="44.40547" lon="5.84218">
        <ele>917</ele>
        <time>2009-11-23T07:24:21Z</time>
      </trkpt>
      <trkpt lat="44.40509" lon="5.842">
        <ele>919</ele>
        <time>2009-11-23T07:24:21Z</time>
      </trkpt>
      <trkpt lat="44.40488" lon="5.8417">
        <ele>924</ele>
        <time>2009-11-23T07:24:21Z</time>
      </trkpt>
      <trkpt lat="44.40466" lon="5.8415">
        <ele>926</ele>
        <time>2009-11-23T07:24:21Z</time>
      </trkpt>
      <trkpt lat="44.40449" lon="5.8413">
        <ele>928</ele>
        <time>2009-11-23T07:24:21Z</time>
      </trkpt>
      <trkpt lat="44.40491" lon="5.84152">
        <ele>929</ele>
        <time>2009-11-23T07:24:21Z</time>
      </trkpt>
      <trkpt lat="44.40521" lon="5.84185">
        <ele>924</ele>
        <time>2009-11-23T07:24:21Z</time>
      </trkpt>
      <trkpt lat="44.40559" lon="5.84206">
        <ele>921</ele>
        <time>2009-11-23T07:24:21Z</time>
      </trkpt>
      <trkpt lat="44.40599" lon="5.84202">
        <ele>920</ele>
        <time>2009-11-23T07:24:21Z</time>
      </trkpt>
      <trkpt lat="44.40646" lon="5.84158">
        <ele>921</ele>
        <time>2009-11-23T07:24:21Z</time>
      </trkpt>
      <trkpt lat="44.40716" lon="5.84081">
        <ele>918</ele>
        <time>2009-11-23T07:24:21Z</time>
      </trkpt>
      <trkpt lat="44.40931" lon="5.84022">
        <ele>924</ele>
        <time>2009-11-23T07:24:21Z</time>
      </trkpt>
      <trkpt lat="44.40987" lon="5.83982">
        <ele>921</ele>
        <time>2009-11-23T07:24:21Z</time>
      </trkpt>
      <trkpt lat="44.41071" lon="5.83955">
        <ele>922</ele>
        <time>2009-11-23T07:24:21Z</time>
      </trkpt>
      <trkpt lat="44.41107" lon="5.83942">
        <ele>920</ele>
        <time>2009-11-23T07:24:21Z</time>
      </trkpt>
      <trkpt lat="44.41129" lon="5.83912">
        <ele>909</ele>
        <time>2009-11-23T07:24:21Z</time>
      </trkpt>
      <trkpt lat="44.4116" lon="5.83926">
        <ele>911</ele>
        <time>2009-11-23T07:24:21Z</time>
      </trkpt>
      <trkpt lat="44.41257" lon="5.83914">
        <ele>915</ele>
        <time>2009-11-23T07:24:21Z</time>
      </trkpt>
      <trkpt lat="44.41341" lon="5.83743">
        <ele>896</ele>
        <time>2009-11-23T07:24:21Z</time>
      </trkpt>
      <trkpt lat="44.41325" lon="5.83686">
        <ele>878</ele>
        <time>2009-11-23T07:24:21Z</time>
      </trkpt>
      <trkpt lat="44.41355" lon="5.8364">
        <ele>884</ele>
        <time>2009-11-23T07:24:21Z</time>
      </trkpt>
      <trkpt lat="44.41375" lon="5.83522">
        <ele>865</ele>
        <time>2009-11-23T07:24:21Z</time>
      </trkpt>
      <trkpt lat="44.41451" lon="5.83527">
        <ele>865</ele>
        <time>2009-11-23T07:24:21Z</time>
      </trkpt>
      <trkpt lat="44.41497" lon="5.83508">
        <ele>850</ele>
        <time>2009-11-23T07:24:21Z</time>
      </trkpt>
      <trkpt lat="44.41552" lon="5.83533">
        <ele>857</ele>
        <time>2009-11-23T07:24:21Z</time>
      </trkpt>
      <trkpt lat="44.41539" lon="5.83473">
        <ele>850</ele>
        <time>2009-11-23T07:24:21Z</time>
      </trkpt>
      <trkpt lat="44.41521" lon="5.83406">
        <ele>847</ele>
        <time>2009-11-23T07:24:21Z</time>
      </trkpt>
      <trkpt lat="44.41476" lon="5.83312">
        <ele>838</ele>
        <time>2009-11-23T07:24:21Z</time>
      </trkpt>
      <trkpt lat="44.41474" lon="5.83252">
        <ele>839</ele>
        <time>2009-11-23T07:24:21Z</time>
      </trkpt>
      <trkpt lat="44.41501" lon="5.83169">
        <ele>837</ele>
        <time>2009-11-23T07:24:21Z</time>
      </trkpt>
      <trkpt lat="44.41572" lon="5.83073">
        <ele>826</ele>
        <time>2009-11-23T07:24:21Z</time>
      </trkpt>
      <trkpt lat="44.41436" lon="5.82317">
        <ele>798</ele>
        <time>2009-11-23T07:24:21Z</time>
      </trkpt>
      <trkpt lat="44.41264" lon="5.81977">
        <ele>784</ele>
        <time>2009-11-23T07:24:21Z</time>
      </trkpt>
      <trkpt lat="44.41292" lon="5.81746">
        <ele>778</ele>
        <time>2009-11-23T07:24:21Z</time>
      </trkpt>
      <trkpt lat="44.4146" lon="5.81264">
        <ele>754</ele>
        <time>2009-11-23T07:24:21Z</time>
      </trkpt>
      <trkpt lat="44.41479" lon="5.81102">
        <ele>752</ele>
        <time>2009-11-23T07:24:21Z</time>
      </trkpt>
      <trkpt lat="44.41503" lon="5.80899">
        <ele>749</ele>
        <time>2009-11-23T07:24:21Z</time>
      </trkpt>
      <trkpt lat="44.41499" lon="5.80698">
        <ele>742</ele>
        <time>2009-11-23T07:24:21Z</time>
      </trkpt>
      <trkpt lat="44.41476" lon="5.80615">
        <ele>740</ele>
        <time>2009-11-23T07:24:21Z</time>
      </trkpt>
      <trkpt lat="44.41481" lon="5.8054">
        <ele>738</ele>
        <time>2009-11-23T07:24:21Z</time>
      </trkpt>
      <trkpt lat="44.41653" lon="5.80299">
        <ele>738</ele>
        <time>2009-11-23T07:24:21Z</time>
      </trkpt>
      <trkpt lat="44.41698" lon="5.80236">
        <ele>738</ele>
        <time>2009-11-23T07:24:21Z</time>
      </trkpt>
      <trkpt lat="44.41711" lon="5.80168">
        <ele>736</ele>
        <time>2009-11-23T07:24:21Z</time>
      </trkpt>
      <trkpt lat="44.41787" lon="5.80103">
        <ele>736</ele>
        <time>2009-11-23T07:24:21Z</time>
      </trkpt>
      <trkpt lat="44.41832" lon="5.8004">
        <ele>737</ele>
        <time>2009-11-23T07:24:21Z</time>
      </trkpt>
      <trkpt lat="44.41871" lon="5.79952">
        <ele>736</ele>
        <time>2009-11-23T07:24:21Z</time>
      </trkpt>
      <trkpt lat="44.41955" lon="5.79866">
        <ele>736</ele>
        <time>2009-11-23T07:24:21Z</time>
      </trkpt>
      <trkpt lat="44.42004" lon="5.79859">
        <ele>738</ele>
        <time>2009-11-23T07:24:21Z</time>
      </trkpt>
      <trkpt lat="44.4203" lon="5.79842">
        <ele>739</ele>
        <time>2009-11-23T07:24:21Z</time>
      </trkpt>
      <trkpt lat="44.42036" lon="5.79777">
        <ele>738</ele>
        <time>2009-11-23T07:24:21Z</time>
      </trkpt>
      <trkpt lat="44.42142" lon="5.79554">
        <ele>735</ele>
        <time>2009-11-23T07:24:21Z</time>
      </trkpt>
      <trkpt lat="44.42197" lon="5.79457">
        <ele>736</ele>
        <time>2009-11-23T07:24:21Z</time>
      </trkpt>
      <trkpt lat="44.42197" lon="5.79457">
        <ele>736</ele>
        <time>2009-11-23T07:24:21Z</time>
      </trkpt>
      <trkpt lat="44.42182" lon="5.79443">
        <ele>736</ele>
        <time>2009-11-23T07:24:21Z</time>
      </trkpt>
      <trkpt lat="44.42103" lon="5.79369">
        <ele>735</ele>
        <time>2009-11-23T07:24:21Z</time>
      </trkpt>
      <trkpt lat="44.42068" lon="5.79276">
        <ele>735</ele>
        <time>2009-11-23T07:24:21Z</time>
      </trkpt>
      <trkpt lat="44.42065" lon="5.79226">
        <ele>736</ele>
        <time>2009-11-23T07:24:21Z</time>
      </trkpt>
      <trkpt lat="44.42028" lon="5.79123">
        <ele>734</ele>
        <time>2009-11-23T07:24:21Z</time>
      </trkpt>
      <trkpt lat="44.42012" lon="5.79122">
        <ele>733</ele>
        <time>2010-01-16T00:33:50Z</time>
      </trkpt>
      <trkpt lat="44.41994" lon="5.78983">
        <ele>733</ele>
        <time>2010-01-16T00:33:50Z</time>
      </trkpt>
      <trkpt lat="44.4198" lon="5.7885">
        <ele>734</ele>
        <time>2010-01-16T00:33:50Z</time>
      </trkpt>
      <trkpt lat="44.41864" lon="5.78824">
        <ele>719</ele>
        <time>2010-01-16T00:33:50Z</time>
      </trkpt>
      <trkpt lat="44.41808" lon="5.78745">
        <ele>715</ele>
        <time>2010-01-16T00:33:50Z</time>
      </trkpt>
      <trkpt lat="44.41777" lon="5.78706">
        <ele>713</ele>
        <time>2010-01-16T00:33:50Z</time>
      </trkpt>
      <trkpt lat="44.41817" lon="5.78582">
        <ele>714</ele>
        <time>2010-01-16T00:33:50Z</time>
      </trkpt>
      <trkpt lat="44.41733" lon="5.78546">
        <ele>706</ele>
        <time>2010-01-16T00:33:50Z</time>
      </trkpt>
      <trkpt lat="44.41672" lon="5.78473">
        <ele>707</ele>
        <time>2010-01-16T00:33:50Z</time>
      </trkpt>
      <trkpt lat="44.41666" lon="5.78379">
        <ele>707</ele>
        <time>2010-01-16T00:33:50Z</time>
      </trkpt>
      <trkpt lat="44.41599" lon="5.78381">
        <ele>708</ele>
        <time>2010-01-16T00:33:50Z</time>
      </trkpt>
      <trkpt lat="44.41563" lon="5.78379">
        <ele>708</ele>
        <time>2010-01-16T00:33:50Z</time>
      </trkpt>
      <trkpt lat="44.4153" lon="5.7827">
        <ele>706</ele>
        <time>2010-01-16T00:33:50Z</time>
      </trkpt>
      <trkpt lat="44.41417" lon="5.78282">
        <ele>708</ele>
        <time>2010-01-16T00:33:50Z</time>
      </trkpt>
      <trkpt lat="44.41321" lon="5.78194">
        <ele>717</ele>
        <time>2010-01-16T00:33:50Z</time>
      </trkpt>
      <trkpt lat="44.41233" lon="5.78145">
        <ele>724</ele>
        <time>2010-01-16T00:33:50Z</time>
      </trkpt>
      <trkpt lat="44.41078" lon="5.7806">
        <ele>756</ele>
        <time>2010-01-16T00:33:50Z</time>
      </trkpt>
      <trkpt lat="44.40985" lon="5.77998">
        <ele>773</ele>
        <time>2010-01-16T00:33:50Z</time>
      </trkpt>
      <trkpt lat="44.40926" lon="5.78013">
        <ele>785</ele>
        <time>2010-01-16T00:33:50Z</time>
      </trkpt>
      <trkpt lat="44.40874" lon="5.77966">
        <ele>794</ele>
        <time>2010-01-16T00:33:50Z</time>
      </trkpt>
      <trkpt lat="44.40808" lon="5.77918">
        <ele>801</ele>
        <time>2010-01-16T00:33:50Z</time>
      </trkpt>
      <trkpt lat="44.40753" lon="5.77802">
        <ele>791</ele>
        <time>2010-01-16T00:33:50Z</time>
      </trkpt>
      <trkpt lat="44.40728" lon="5.77731">
        <ele>791</ele>
        <time>2010-01-16T00:33:50Z</time>
      </trkpt>
      <trkpt lat="44.40744" lon="5.77657">
        <ele>789</ele>
        <time>2010-01-16T00:33:50Z</time>
      </trkpt>
      <trkpt lat="44.4078" lon="5.7764">
        <ele>782</ele>
        <time>2010-01-16T00:33:50Z</time>
      </trkpt>
      <trkpt lat="44.40826" lon="5.77618">
        <ele>773</ele>
        <time>2010-01-16T00:33:50Z</time>
      </trkpt>
      <trkpt lat="44.40912" lon="5.77604">
        <ele>756</ele>
        <time>2010-01-16T00:33:50Z</time>
      </trkpt>
      <trkpt lat="44.40897" lon="5.77503">
        <ele>754</ele>
        <time>2010-01-16T00:33:50Z</time>
      </trkpt>
      <trkpt lat="44.40893" lon="5.77352">
        <ele>742</ele>
        <time>2010-01-16T00:33:50Z</time>
      </trkpt>
      <trkpt lat="44.4093" lon="5.77304">
        <ele>736</ele>
        <time>2010-01-16T00:33:50Z</time>
      </trkpt>
      <trkpt lat="44.40921" lon="5.77184">
        <ele>736</ele>
        <time>2010-01-16T00:33:50Z</time>
      </trkpt>
      <trkpt lat="44.40859" lon="5.77004">
        <ele>737</ele>
        <time>2010-01-16T00:33:50Z</time>
      </trkpt>
      <trkpt lat="44.40987" lon="5.76937">
        <ele>720</ele>
        <time>2010-01-16T00:33:50Z</time>
      </trkpt>
      <trkpt lat="44.41062" lon="5.76835">
        <ele>711</ele>
        <time>2010-01-16T00:33:50Z</time>
      </trkpt>
      <trkpt lat="44.41155" lon="5.76759">
        <ele>700</ele>
        <time>2010-01-16T00:33:50Z</time>
      </trkpt>
      <trkpt lat="44.41198" lon="5.76655">
        <ele>686</ele>
        <time>2010-01-16T00:33:50Z</time>
      </trkpt>
      <trkpt lat="44.41322" lon="5.76725">
        <ele>688</ele>
        <time>2010-01-16T00:33:50Z</time>
      </trkpt>
      <trkpt lat="44.41316" lon="5.76643">
        <ele>690</ele>
        <time>2010-01-16T00:33:50Z</time>
      </trkpt>
    </trkseg>
  </trk>
</gpx>